[{"header": {"dx": 0.06612293990616946, "dy": 0.0552356325346848, "nx": 98, "ny": 59, "la1": 35.046912555036876, "la2": 31.78801023549047, "lo1": -121.43107172385933, "lo2": -114.95102361305473, "refTime": "2026040918", "parameterCategory": 1, "parameterNumber": 2}, "data": [2.91, 2.91, 2.91, 2.91, 2.91, 2.91, 2.91, 2.91, 2.91, 2.91, 2.63, 3.07, 5.29, 5.73, 5.81, 5.81, 5.81, 5.81, 6.26, 6.26, 5.81, 5.81, 4.34, 2.98, 1.9, 1.79, -1.79, -1.9, -2.53, -3.16, -3.48, -2.95, -2.95, -1.83, -0.96, 0.0, 0.0, 1.08, 2.23, 2.84, 4.0, 4.98, 7.28, 8.55, 10.24, 11.26, 12.86, 12.27, 10.96, 9.24, 8.33, 8.9, 9.39, 9.39, 9.8, 10.14, 9.97, 10.18, 10.18, 10.68, 10.68, 10.68, 10.41, 9.97, 9.97, 9.97, 10.45, 10.89, 11.33, 11.36, 10.89, 9.97, 9.49, 9.06, 8.99, 8.33, 8.0, 6.66, 6.71, 5.36, 4.34, 2.53, 1.4, 1.9, 1.58, 2.24, 3.58, 4.92, 6.26, 7.1, 7.1, 7.15, 6.64, 6.16, 5.58, 5.49, 4.58, 4.87, 2.91, 2.91, 2.91, 2.91, 2.4, 2.4, 2.4, 2.91, 2.8, 2.4, 2.4, 3.9, 5.26, 5.51, 6.07, 6.26, 5.81, 6.71, 6.26, 5.36, 6.26, 5.81, 5.36, 4.4, 1.4, 0.0, 0.0, -1.58, -1.4, -2.23, -2.0, -2.2, -1.99, -1.05, 0.0, 0.0, 0.0, 0.0, 0.96, 2.0, 4.29, 6.08, 7.81, 8.38, 10.66, 11.64, 11.6, 10.32, 8.77, 8.45, 8.01, 8.49, 8.94, 8.94, 9.28, 9.97, 10.18, 10.68, 10.68, 11.11, 11.11, 10.68, 10.45, 10.45, 10.41, 10.6, 11.05, 10.89, 11.36, 11.8, 11.8, 10.89, 10.41, 9.7, 9.68, 9.68, 9.35, 6.66, 6.71, 5.36, 4.34, 2.53, 1.4, 1.9, 1.58, 2.24, 3.58, 4.92, 6.26, 7.1, 7.1, 7.15, 6.64, 6.16, 5.58, 5.49, 4.58, 4.87, 2.91, 2.91, 2.91, 2.91, 2.4, 2.4, 2.4, 2.8, 2.5, 2.15, 2.4, 2.91, 4.98, 5.51, 4.8, 5.51, 5.94, 6.2, 6.17, 6.71, 5.36, 6.26, 6.26, 5.81, 3.16, 0.0, 0.0, 0.0, 0.0, 0.0, 0.0, 0.0, 0.0, 0.0, 0.88, 0.0, 0.0, 0.0, 0.89, 1.98, 3.9, 6.73, 8.38, 10.04, 10.66, 10.96, 10.45, 9.79, 8.94, 8.94, 8.94, 8.9, 9.35, 9.68, 9.54, 10.18, 10.68, 11.11, 11.11, 11.18, 11.18, 11.18, 10.68, 10.89, 10.89, 10.89, 11.36, 11.36, 11.8, 12.27, 12.27, 11.8, 11.05, 10.25, 10.25, 10.25, 10.25, 8.49, 6.71, 6.26, 5.73, 4.4, 2.84, 1.4, 0.0, 1.58, 2.97, 4.82, 6.02, 6.94, 6.94, 6.71, 6.2, 5.94, 6.0, 5.58, 5.49, 5.06, 2.91, 2.91, 2.91, 2.91, 2.8, 2.4, 2.4, 2.5, 2.5, 2.5, 2.15, 2.68, 4.98, 5.2, 5.6, 5.21, 6.0, 6.57, 6.45, 6.64, 6.26, 6.71, 6.71, 5.36, 4.82, 4.4, 0.0, 0.0, 0.0, 1.13, 1.13, 2.23, 3.16, 4.84, 4.74, 3.0, 1.4, 1.49, 1.84, 3.45, 5.21, 7.18, 8.31, 9.05, 9.36, 9.97, 9.8, 9.83, 10.25, 10.25, 9.72, 10.58, 9.97, 10.41, 10.18, 10.68, 11.11, 11.18, 11.18, 11.36, 11.18, 11.18, 11.11, 11.18, 11.18, 11.61, 11.61, 11.71, 12.01, 12.62, 13.18, 12.41, 11.59, 10.28, 9.83, 10.28, 10.28, 9.83, 8.05, 7.1, 6.21, 5.94, 4.4, 2.53, 1.4, 2.53, 4.0, 4.98, 6.0, 6.57, 6.45, 5.81, 5.73, 5.4, 5.21, 5.58, 5.58, 4.89, 2.91, 2.91, 2.91, 2.91, 2.91, 2.4, 2.4, 2.5, 2.5, 2.5, 2.5, 2.68, 4.98, 5.94, 6.0, 5.58, 5.46, 6.21, 6.57, 6.16, 7.01, 6.51, 6.51, 6.51, 5.26, 5.94, 3.79, 1.7, 0.0, 0.0, 1.27, 3.35, 4.82, 6.17, 7.45, 6.4, 4.74, 3.2, 2.83, 4.2, 5.06, 6.95, 7.41, 8.21, 8.72, 9.24, 9.8, 10.28, 10.73, 10.7, 11.14, 11.05, 11.05, 10.89, 11.36, 11.36, 11.36, 11.36, 11.8, 11.36, 11.36, 11.18, 11.18, 11.61, 11.37, 12.04, 12.04, 11.87, 12.72, 13.23, 13.49, 13.18, 11.53, 10.73, 9.83, 9.36, 9.79, 9.39, 8.45, 6.55, 6.51, 6.88, 5.6, 3.48, 2.48, 3.93, 5.4, 5.6, 5.6, 5.4, 4.82, 4.47, 4.4, 4.11, 4.89, 6.0, 5.6, 4.98, 2.91, 2.91, 2.91, 2.91, 2.91, 2.8, 2.8, 2.5, 2.5, 2.21, 2.5, 2.5, 4.57, 5.81, 6.0, 5.82, 5.49, 5.84, 6.18, 6.18, 6.6, 5.6, 6.51, 5.94, 5.94, 6.07, 5.94, 4.8, 3.48, 0.0, 1.13, 2.84, 4.57, 6.64, 7.55, 7.15, 7.15, 5.36, 1.08, 0.89, 3.0, 5.37, 6.21, 7.2, 8.06, 8.56, 9.24, 9.7, 10.25, 10.73, 10.73, 10.73, 10.7, 10.7, 11.15, 11.59, 11.51, 11.51, 11.95, 11.95, 11.36, 10.89, 11.11, 11.61, 12.04, 12.09, 12.04, 11.61, 12.3, 13.23, 13.92, 13.49, 12.71, 11.51, 9.83, 8.94, 8.45, 8.49, 8.05, 6.94, 6.57, 6.21, 5.58, 4.11, 3.63, 4.89, 6.0, 6.45, 5.73, 4.47, 3.82, 2.48, 1.99, 2.99, 4.89, 5.6, 5.94, 5.4, 3.32, 3.32, 2.91, 2.91, 2.91, 2.91, 2.5, 2.5, 2.53, 2.53, 2.21, 2.21, 3.93, 5.2, 6.64, 6.16, 6.6, 6.55, 6.11, 6.44, 7.03, 7.53, 7.1, 6.71, 6.71, 6.26, 6.26, 5.51, 5.09, 3.58, 3.16, 2.48, 4.29, 6.16, 7.42, 7.55, 7.6, 7.6, 3.58, -3.58, 3.58, 4.47, 5.81, 6.71, 7.6, 7.15, 8.44, 8.9, 9.24, 9.76, 9.83, 9.39, 10.28, 10.28, 10.73, 11.18, 11.14, 11.15, 11.51, 11.51, 10.89, 10.45, 11.33, 11.8, 11.8, 12.09, 12.27, 11.8, 12.27, 13.18, 13.65, 13.44, 12.62, 12.41, 10.7, 9.35, 8.49, 8.05, 8.49, 8.45, 6.57, 5.58, 5.58, 4.89, 4.74, 4.74, 6.21, 6.45, 6.26, 5.26, 3.58, 1.55, 1.84, 3.63, 4.98, 5.94, 5.51, 4.98, 3.32, 3.32, 3.32, 3.32, 2.91, 2.68, 2.68, 2.5, 2.79, 2.23, 1.84, 1.61, 3.22, 5.24, 6.52, 5.46, 6.44, 6.82, 6.44, 7.2, 7.76, 8.14, 8.9, 8.49, 7.6, 8.05, 6.94, 6.4, 5.72, 6.51, 5.81, 5.09, 5.51, 6.71, 6.26, 6.71, 7.15, 6.26, 1.84, -1.63, -0.0, -0.0, 3.0, 5.06, 6.08, 7.28, 7.12, 8.0, 8.05, 8.94, 8.05, 8.94, 9.39, 9.83, 10.28, 10.28, 10.73, 10.7, 10.7, 11.14, 10.6, 10.6, 11.05, 11.06, 11.51, 11.96, 12.41, 11.59, 11.59, 12.41, 12.86, 13.31, 13.31, 12.41, 11.51, 9.81, 9.8, 9.39, 9.83, 9.8, 8.36, 5.75, 5.2, 4.84, 4.81, 5.46, 5.82, 6.88, 7.15, 6.88, 4.84, 3.63, 2.99, 4.98, 5.51, 6.17, 5.73, 4.82, 3.39, 3.39, 3.39, 3.32, 3.07, 3.07, 3.07, 2.79, 3.14, 2.84, 2.23, 2.22, 3.91, 4.22, 4.87, 5.15, 6.01, 6.79, 6.79, 6.45, 6.63, 8.0, 8.29, 8.73, 8.0, 8.49, 7.6, 7.06, 7.47, 7.45, 6.51, 4.43, 3.72, 5.06, 5.6, 6.64, 7.15, 4.43, -0.0, -0.0, -0.0, 1.49, 2.82, 4.14, 5.31, 5.69, 7.33, 8.4, 7.76, 8.06, 8.85, 8.33, 9.35, 9.79, 9.83, 10.28, 10.73, 10.28, 10.73, 10.73, 10.28, 10.28, 10.28, 10.28, 10.7, 11.14, 12.04, 11.15, 10.7, 11.15, 12.49, 12.5, 13.41, 12.52, 11.62, 11.18, 10.73, 10.73, 11.14, 10.7, 10.14, 6.7, 4.84, 4.19, 4.19, 4.84, 5.75, 6.88, 6.71, 6.98, 6.7, 5.43, 4.8, 5.51, 6.17, 6.17, 5.73, 4.77, 3.39, 3.39, 3.39, 3.39, 3.2, 3.07, 3.07, 2.79, 2.84, 2.86, 2.86, 3.49, 4.74, 4.43, 5.53, 4.5, 4.74, 5.36, 6.64, 5.59, 5.59, 5.59, 6.63, 7.28, 6.9, 7.45, 7.15, 6.94, 7.47, 7.47, 4.74, 1.4, -0.0, 2.82, 4.56, 7.06, 5.58, 0.89, -0.0, 1.49, 1.72, 3.0, 2.8, 3.91, 4.43, 5.49, 6.18, 7.6, 8.17, 8.3, 8.56, 9.24, 9.35, 9.83, 10.28, 10.28, 10.7, 10.6, 10.6, 10.25, 10.25, 9.39, 9.39, 7.85, 8.77, 10.14, 11.05, 10.26, 9.83, 10.7, 12.04, 12.43, 12.88, 12.43, 11.86, 10.96, 10.45, 10.41, 10.05, 11.08, 10.62, 8.67, 5.46, 4.11, 3.48, 3.84, 4.8, 6.02, 6.26, 6.71, 6.51, 6.51, 6.2, 6.26, 6.26, 6.26, 5.73, 4.4, 3.39, 3.39, 3.39, 3.39, 3.2, 3.2, 3.6, 3.35, 3.43, 3.48, 3.49, 4.12, 5.93, 6.56, 8.21, 6.11, 5.69, 3.16, 3.64, 3.88, 6.79, 6.45, 5.84, 5.58, 6.0, 6.71, 6.71, 6.0, 5.72, 5.72, 5.06, 1.03, 0.96, 2.16, 3.63, 6.08, 4.56, 2.99, 2.64, 3.72, 3.97, 3.72, 3.91, 3.47, 4.43, 4.89, 5.58, 7.12, 7.85, 8.29, 8.77, 9.24, 9.35, 9.83, 9.83, 10.7, 10.6, 10.41, 9.75, 9.06, 7.6, 6.16, 5.49, 6.18, 7.42, 9.24, 10.14, 10.25, 10.25, 10.18, 11.37, 11.72, 12.22, 11.72, 10.79, 10.52, 9.6, 9.66, 9.66, 10.41, 9.72, 8.82, 7.21, 4.81, 2.98, 3.07, 4.19, 4.8, 5.31, 5.81, 6.26, 6.71, 6.26, 6.26, 6.71, 6.71, 6.26, 4.98, 3.39, 3.39, 3.39, 3.2, 3.6, 3.6, 3.6, 3.35, 3.43, 3.73, 4.11, 4.43, 5.59, 7.48, 8.72, 8.64, 7.51, 6.68, 6.68, 7.6, 8.49, 8.49, 8.05, 10.73, 8.94, 8.85, 8.6, 4.19, 6.4, 6.0, 6.0, 4.43, 2.99, 1.99, 2.76, 2.99, 3.47, 3.72, 3.72, 4.58, 5.06, 4.58, 3.47, 3.0, 2.8, 3.63, 5.72, 6.8, 7.06, 7.94, 7.42, 8.33, 8.77, 9.24, 9.35, 9.39, 8.94, 8.29, 6.57, 3.58, 0.89, 1.75, 3.45, 5.1, 6.73, 8.82, 9.6, 9.97, 9.83, 9.49, 9.45, 10.48, 10.53, 10.28, 9.43, 9.03, 8.4, 7.82, 8.0, 8.4, 8.77, 8.0, 7.54, 5.95, 3.47, 2.6, 3.22, 4.19, 4.22, 5.09, 5.31, 5.75, 5.81, 6.64, 7.54, 7.1, 6.71, 6.17, 3.39, 3.39, 3.39, 3.6, 3.6, 3.6, 3.6, 3.72, 3.88, 4.0, 4.65, 4.71, 5.59, 7.07, 8.72, 10.01, 10.22, 9.83, 9.83, 9.82, 10.27, 11.12, 11.95, 12.02, 11.95, 11.95, 11.4, 10.47, 7.87, 5.34, 6.71, 6.45, 4.89, 3.22, 1.83, 1.99, 2.76, 3.91, 4.74, 5.49, 5.49, 4.29, 2.8, 1.84, 1.63, 3.0, 3.2, 5.06, 6.08, 7.47, 6.28, 7.42, 7.63, 6.44, 7.67, 6.01, 7.28, 7.01, 1.4, -3.63, -0.85, 1.68, 3.32, 3.45, 5.21, 6.83, 8.27, 9.0, 8.21, 7.37, 7.15, 7.76, 8.12, 7.68, 6.73, 6.11, 6.18, 6.21, 6.0, 6.0, 6.51, 7.1, 6.65, 6.64, 4.74, 3.55, 2.8, 2.53, 3.16, 4.22, 4.22, 5.09, 5.59, 6.94, 7.85, 7.85, 7.1, 6.71, 3.39, 3.82, 3.82, 3.6, 3.6, 3.7, 4.11, 3.88, 4.27, 4.0, 4.65, 4.94, 5.86, 6.7, 8.0, 9.21, 10.04, 10.58, 10.27, 10.28, 10.73, 11.18, 11.61, 12.47, 12.47, 12.4, 12.31, 12.3, 10.5, 8.03, 6.71, 7.6, 7.01, 4.6, 3.79, 3.22, 3.35, 4.89, 5.21, 5.58, 5.58, 3.63, 2.8, 1.52, -0.0, 1.52, 2.99, 4.29, 6.08, 6.08, 7.47, 7.47, 6.08, 3.4, 3.4, 2.8, 6.44, 8.38, 5.36, -2.82, -1.62, -0.0, 1.39, 1.39, 2.57, 4.2, 5.64, 6.42, 6.98, 6.32, 6.55, 5.73, 2.53, 0.0, 0.0, 1.13, 1.6, 2.21, 3.39, 3.9, 4.4, 5.51, 5.59, 5.75, 5.75, 4.89, 1.98, 0.0, 1.66, 3.16, 3.16, 4.19, 4.84, 6.57, 7.21, 8.29, 8.0, 7.6, 3.82, 3.82, 3.82, 3.6, 3.7, 4.11, 4.11, 3.88, 4.27, 4.55, 4.93, 5.21, 5.86, 6.41, 7.48, 8.72, 9.86, 10.47, 10.6, 10.67, 10.71, 11.18, 11.18, 11.61, 12.02, 11.95, 12.3, 12.18, 11.86, 10.22, 8.49, 7.13, 8.49, 6.58, 5.6, 4.43, 5.72, 5.58, 7.06, 5.94, 4.98, 3.47, 1.84, -0.0, -0.0, -0.0, 1.41, 2.8, 3.47, 4.74, 5.72, 5.72, 3.2, -0.0, 1.52, 3.47, 6.0, 7.56, 7.63, 1.47, -0.85, -0.0, -0.0, 1.4, 1.47, 2.83, 4.2, 6.3, 6.95, 8.18, 6.82, 2.48, -5.26, -6.26, -5.36, -4.02, -3.58, -1.9, 1.79, 2.24, 2.21, 3.72, 3.83, 4.57, 4.66, 5.94, 2.95, 0.0, 0.0, 2.0, 3.22, 3.35, 4.11, 4.81, 6.8, 8.29, 8.0, 8.0, 3.82, 3.87, 3.87, 3.7, 3.7, 4.11, 4.11, 4.27, 4.4, 4.8, 4.93, 5.21, 5.75, 6.41, 7.08, 8.22, 9.21, 9.86, 10.47, 11.04, 11.12, 11.61, 11.62, 11.61, 11.95, 12.75, 13.21, 13.65, 13.3, 12.47, 10.73, 8.87, 7.51, 8.49, 6.71, 5.2, 5.58, 6.21, 6.64, 6.07, 3.93, 2.76, 1.52, -0.0, -0.0, -0.0, -0.0, 1.7, 1.7, 3.22, 3.47, 3.0, 1.63, 1.84, 1.7, 4.11, 6.0, 7.06, 6.01, 2.69, -0.0, -0.0, -0.0, -0.0, 1.73, 3.4, 3.72, 6.01, 7.33, 8.8, 5.94, -0.0, -6.2, -6.2, -4.98, -3.16, -1.27, -0.0, 1.4, 2.68, 1.9, 1.27, 2.23, 2.23, 3.35, 4.34, 5.26, 2.48, 0.0, 2.0, 3.22, 2.4, 4.01, 5.43, 7.03, 7.6, 7.47, 7.47, 3.87, 3.87, 3.87, 3.7, 4.11, 4.11, 4.11, 4.4, 4.4, 4.8, 5.08, 5.47, 5.75, 6.28, 7.2, 7.81, 8.3, 9.39, 10.04, 10.6, 11.12, 11.61, 11.62, 11.61, 11.95, 12.84, 13.74, 13.81, 13.85, 13.86, 12.52, 10.58, 8.17, 8.6, 6.26, 5.59, 5.21, 6.4, 5.6, 4.84, 2.6, 1.84, 1.63, 0.88, -0.0, -0.0, -0.0, -0.0, -0.0, 1.55, 1.7, 1.7, 1.7, 2.98, 3.79, 4.84, 5.21, 4.43, 3.0, 2.8, 1.41, -0.0, -0.0, 2.2, 1.7, 2.95, 4.74, 5.58, 7.47, 9.29, 6.26, -3.39, -6.26, -4.4, -0.0, 1.98, 4.58, 5.49, 5.58, 5.6, 4.92, 2.84, 0.0, 0.0, 0.0, 1.4, 4.92, 3.16, 3.16, 3.48, 0.96, 0.82, 2.47, 4.65, 6.45, 6.7, 7.07, 7.07, 3.87, 3.87, 4.3, 4.11, 4.11, 4.11, 4.11, 4.6, 4.4, 4.9, 5.31, 5.47, 6.0, 6.28, 6.8, 7.31, 8.22, 8.91, 9.54, 10.22, 11.16, 11.57, 11.16, 10.71, 11.49, 12.46, 12.52, 12.96, 12.95, 13.36, 12.84, 10.94, 8.3, 6.79, 5.78, 6.26, 5.09, 5.6, 5.21, 3.47, 1.52, 1.63, 1.52, 1.52, 1.52, 1.41, -0.0, -0.0, -0.0, -0.0, 2.2, 2.2, 3.48, 3.48, 3.79, 3.48, 3.79, 2.98, 2.98, 2.98, 2.98, 2.2, 2.0, 2.84, 3.16, 2.84, 4.24, 6.26, 8.38, 10.2, 8.85, 4.4, 2.99, 4.16, 5.89, 7.68, 8.38, 9.05, 8.43, 7.82, 7.2, 5.26, 0.0, -0.99, 0.0, 0.0, 2.23, 4.0, 4.4, 4.4, 2.0, 0.0, 1.52, 3.79, 5.69, 5.69, 5.72, 5.72, 3.87, 4.3, 4.3, 4.11, 4.11, 4.11, 4.6, 4.6, 4.8, 4.9, 5.31, 5.6, 5.6, 6.1, 6.28, 8.4, 7.31, 7.51, 7.74, 8.87, 10.67, 11.4, 10.04, 10.6, 10.7, 12.91, 8.79, 12.09, 13.01, 10.38, 10.94, 9.57, 6.6, 5.31, 5.09, 4.89, 4.47, 4.02, 4.98, 4.11, 2.2, 2.2, 1.84, 1.7, 3.22, 3.22, 1.55, -0.0, -0.0, -0.0, 2.0, 2.2, 2.2, 3.48, 3.79, 3.48, 4.0, 3.16, 3.48, 3.48, 3.48, 3.48, 3.48, 2.53, 1.6, 2.53, 3.82, 5.81, 8.33, 11.55, 12.71, 13.11, 14.79, 14.79, 13.19, 12.45, 11.61, 11.33, 10.18, 9.24, 6.0, -0.0, -4.47, -3.39, -1.4, -1.4, 0.0, 0.99, 4.0, 4.15, 4.0, 1.05, 0.95, 2.35, 4.58, 4.58, 4.42, 4.42, 4.3, 4.3, 4.3, 4.11, 4.19, 4.19, 4.6, 4.6, 4.8, 4.9, 5.31, 5.81, 5.6, 6.1, 6.28, 6.8, 6.8, 6.51, 7.76, 9.24, 11.37, 9.51, 8.68, 9.65, 10.63, 10.96, 10.85, 7.58, 8.0, 8.21, 8.33, 6.16, 3.39, 2.15, 3.07, 3.87, 4.44, 4.92, 4.92, 4.88, 4.34, 3.87, 3.39, 3.6, 3.35, 5.21, 3.48, -0.0, -0.0, -0.0, 1.41, 1.55, 1.55, 1.7, 3.48, 3.93, 3.48, 2.8, 3.39, 4.0, 4.0, 4.0, 4.0, 2.0, 1.13, 2.23, 3.35, 5.73, 8.05, 9.97, 12.3, 14.71, 17.13, 17.47, 16.69, 15.2, 13.39, 12.41, 10.28, 8.94, 6.2, -0.0, -4.82, -4.92, -4.02, -2.97, -1.2, 0.0, 2.53, 3.6, 4.82, 3.72, 1.05, 1.03, 2.29, 3.72, 3.72, 3.72, 4.3, 4.3, 4.34, 4.34, 4.19, 4.6, 4.6, 4.6, 5.09, 4.9, 5.31, 5.81, 6.0, 6.1, 6.51, 6.8, 6.8, 6.28, 6.41, 9.05, 10.23, 6.56, 6.15, 7.15, 8.55, 9.71, 9.43, 8.79, 8.47, 8.05, 8.05, 6.26, 2.68, 0.63, 1.26, 2.4, 3.39, 4.44, 5.33, 5.34, 5.36, 4.47, 4.02, 3.98, 3.6, 5.6, 3.79, 2.0, -0.0, -0.0, -0.0, -0.0, 1.55, 1.7, 2.98, 3.79, 3.93, 3.58, 4.47, 4.47, 4.47, 4.47, 4.47, 2.84, 1.4, 2.53, 3.35, 4.98, 6.57, 8.3, 10.0, 12.7, 15.35, 16.46, 15.62, 14.4, 11.6, 11.2, 10.32, 9.06, 6.71, 2.68, -4.47, -4.92, -4.34, -3.35, -2.53, 0.0, 0.0, 2.53, 4.4, 4.34, 2.53, 0.0, 1.7, 2.76, 3.35, 3.35, 4.3, 4.34, 4.34, 4.34, 4.6, 4.6, 4.6, 4.6, 5.09, 5.31, 5.4, 5.81, 6.1, 6.1, 6.51, 7.01, 6.8, 7.2, 7.61, 8.82, 9.42, 7.74, 5.88, 6.28, 7.48, 9.21, 10.04, 10.67, 10.28, 10.28, 10.27, 9.39, 6.26, 3.13, 1.79, 2.24, 2.63, 3.98, 4.77, 5.24, 5.34, 5.33, 4.47, 4.02, 3.87, 3.88, 4.84, 2.0, -0.0, -0.0, -0.0, -0.0, 1.55, 1.55, 2.98, 4.11, 4.54, 5.26, 4.66, 3.48, 3.35, 3.9, 3.58, 3.13, 2.21, 2.53, 2.84, 4.4, 4.98, 7.28, 7.56, 10.79, 12.04, 8.45, 4.89, 7.06, 7.94, 8.57, 8.59, 8.63, 7.85, 4.92, 2.24, -3.58, -4.02, -4.02, -3.58, -2.68, -2.24, 1.13, 2.53, 3.47, 2.97, 0.99, 0.88, 1.66, 2.4, 2.4, 4.34, 4.34, 4.34, 4.77, 4.77, 4.6, 4.6, 5.02, 5.09, 5.31, 5.4, 5.81, 6.3, 6.1, 6.6, 7.01, 6.8, 7.31, 8.0, 8.68, 9.7, 9.57, 9.23, 8.33, 8.17, 8.64, 9.57, 10.67, 11.16, 11.62, 11.62, 11.18, 9.37, 7.13, 4.89, 4.02, 3.58, 4.02, 4.44, 5.33, 5.34, 5.34, 5.33, 4.47, 4.44, 4.11, 4.84, -0.0, -0.0, -0.0, -0.0, -0.0, -0.0, 1.7, 1.7, 3.22, 4.54, 5.21, 5.81, 3.16, 2.95, 4.0, 3.39, 2.68, 1.4, 2.53, 2.84, 3.72, 4.29, 4.11, 5.06, 8.0, -0.0, -7.6, -5.09, 0.0, 2.29, 4.71, 5.86, 7.33, 7.2, 6.64, 5.26, 2.2, -0.0, -0.0, -1.08, -2.2, -3.48, -3.82, 0.0, 1.9, 2.97, 1.2, 0.87, 0.98, 2.0, 2.0, 4.34, 4.34, 4.34, 4.34, 4.77, 4.6, 4.6, 5.09, 5.09, 5.31, 5.4, 5.81, 6.3, 6.1, 6.6, 7.01, 7.09, 7.31, 7.81, 8.51, 9.21, 9.86, 10.04, 10.01, 9.68, 9.24, 9.68, 10.14, 10.67, 11.12, 11.61, 12.06, 10.71, 8.87, 7.07, 6.23, 5.81, 5.36, 5.36, 5.34, 5.78, 5.78, 5.78, 5.33, 4.92, 3.98, 5.09, 1.55, -0.0, -0.0, -0.0, -0.0, -0.0, -0.0, 1.84, 3.22, 2.76, 3.91, 6.0, 5.36, 2.2, 2.48, 1.9, -0.0, 1.13, 2.23, 3.16, 4.46, 4.4, 4.77, 4.92, 11.18, 5.81, -3.13, -6.26, -5.64, -3.48, 0.0, 2.66, 4.65, 6.07, 6.51, 5.75, 4.43, 3.55, 1.84, -0.0, -0.0, -1.05, -3.35, -3.2, 0.0, 1.0, 1.2, 0.99, 0.98, 0.98, 0.98, 4.34, 4.34, 4.34, 4.34, 4.77, 4.77, 5.09, 5.09, 5.09, 5.31, 5.4, 5.81, 6.3, 6.3, 6.6, 7.01, 7.51, 7.51, 7.81, 8.22, 8.72, 9.21, 9.7, 10.34, 10.47, 10.04, 10.14, 10.14, 10.58, 10.67, 11.12, 11.57, 11.12, 9.32, 7.87, 7.07, 6.68, 6.68, 6.23, 6.23, 6.23, 6.23, 6.23, 5.78, 5.34, 4.92, 4.02, 3.39, 1.9, 0.53, -0.0, -0.0, -0.0, -0.0, 1.52, 1.84, 1.84, 1.99, 4.74, 5.58, 5.36, 2.53, 1.79, -0.0, -0.0, 2.0, 3.48, 3.93, 4.98, 5.73, 7.85, 10.14, 13.41, 10.73, 6.71, 1.79, -3.9, -2.84, 0.0, 1.99, 4.11, 5.09, 4.85, 3.79, 3.97, 2.64, 1.98, 1.05, -0.0, -0.0, -2.8, -2.6, 0.0, 0.0, 0.99, 0.87, 0.98, 0.98, 4.34, 4.34, 4.34, 4.77, 4.77, 4.77, 4.8, 5.09, 5.09, 5.51, 5.4, 5.81, 6.3, 6.3, 6.6, 7.01, 7.09, 7.51, 8.0, 7.81, 8.22, 8.72, 9.21, 9.7, 9.86, 10.34, 10.47, 10.58, 10.6, 10.6, 11.11, 11.57, 11.12, 9.77, 8.3, 7.4, 7.07, 7.07, 7.07, 7.06, 6.68, 6.68, 6.68, 6.23, 5.79, 5.34, 5.33, 4.92, 3.58, 2.12, -0.0, -0.0, -0.0, -0.0, 1.25, 1.23, -0.0, -0.0, 2.6, 5.06, 6.4, 5.81, 2.68, -0.0, -0.0, 1.83, 3.22, 4.29, 5.81, 6.64, 7.53, 10.41, 11.59, 13.41, 13.38, 10.28, 4.57, -0.87, -2.48, 0.0, 2.0, 3.6, 3.47, 2.53, 2.29, 3.0, 2.8, 2.99, 2.95, 2.0, -0.0, -3.39, -1.98, 0.0, 1.13, 1.27, 0.98, 0.98, 4.34, 4.34, 4.34, 4.77, 4.77, 4.77, 4.8, 5.09, 5.51, 5.57, 5.4, 5.81, 6.3, 6.3, 6.79, 7.01, 7.09, 7.51, 8.0, 8.0, 8.42, 8.3, 8.72, 9.21, 9.21, 9.86, 9.91, 10.47, 10.5, 11.04, 11.04, 11.05, 11.57, 11.11, 9.24, 7.74, 7.26, 7.4, 7.87, 7.87, 7.87, 7.97, 7.52, 7.13, 6.68, 6.23, 6.23, 5.78, 5.33, 3.54, 2.12, -0.0, -0.0, -0.0, -0.0, -0.0, -0.0, -0.0, 1.84, 3.91, 7.06, 6.45, 5.21, -0.0, -0.0, 1.83, 3.22, 5.51, 6.26, 7.15, 7.85, 9.06, 10.6, 12.07, 12.49, 12.94, 9.7, 1.83, -2.48, -1.6, 0.0, 1.79, 0.87, 0.81, 0.76, 0.76, 2.8, 3.91, 3.49, 1.05, 0.82, -0.0, -3.82, -1.27, 0.0, 0.87, 0.98, 0.98, 4.34, 4.34, 4.34, 4.77, 4.77, 4.77, 5.24, 5.09, 5.09, 5.57, 5.4, 5.81, 5.88, 6.3, 6.79, 6.79, 7.09, 7.51, 8.0, 8.0, 8.0, 8.48, 8.48, 8.72, 8.79, 9.21, 9.43, 9.39, 9.86, 10.04, 10.5, 11.04, 11.49, 11.05, 10.14, 8.21, 7.26, 7.26, 7.74, 8.17, 8.17, 7.87, 7.97, 8.03, 8.03, 7.52, 7.87, 6.61, 6.16, 5.7, 3.98, 2.6, 1.24, -0.0, -0.0, -0.0, -0.0, -0.0, 2.64, 3.72, 5.21, 4.98, 2.99, 1.72, 1.84, 3.0, 5.6, 5.73, 6.26, 7.6, 8.45, 9.68, 9.97, 10.41, 11.05, 12.41, 9.97, 0.96, -4.29, -3.39, -2.68, -1.24, -0.0, -0.0, -0.0, -0.0, 1.55, 2.99, 2.16, -0.0, -0.0, -0.0, -2.84, -2.6, -0.87, 0.0, 0.98, 0.98, 4.34, 4.34, 4.34, 4.77, 4.77, 4.8, 5.24, 5.09, 5.09, 5.51, 5.57, 5.81, 5.88, 6.3, 6.72, 6.79, 7.09, 7.51, 7.51, 8.0, 8.0, 8.48, 8.48, 8.91, 8.91, 8.48, 8.48, 8.91, 8.96, 9.57, 10.04, 10.5, 11.05, 11.49, 10.6, 9.11, 7.74, 7.26, 7.74, 8.17, 8.17, 7.74, 7.4, 9.24, 8.77, 7.07, 7.69, 7.71, 7.31, 6.79, 5.57, 4.44, 3.13, 1.24, -0.0, -0.0, -0.0, -0.0, 1.73, 2.82, 2.6, 1.99, 0.96, 1.03, 1.84, 3.72, 5.58, 6.26, 6.45, 7.37, 8.77, 10.14, 10.45, 10.68, 11.5, 12.45, 10.18, 2.2, -4.29, -4.34, -4.02, -2.21, -0.61, -0.0, -0.0, -0.0, 0.88, 1.05, -0.0, -0.0, -0.0, 0.96, 0.76, -2.4, -0.99, 0.0, 0.88, 0.88, 4.34, 4.34, 4.77, 4.77, 4.77, 4.8, 5.24, 5.09, 5.09, 5.51, 5.57, 5.81, 5.88, 6.3, 6.72, 6.79, 7.21, 7.51, 7.51, 8.0, 8.0, 8.42, 8.48, 8.48, 8.48, 8.48, 8.48, 8.48, 8.48, 9.11, 9.57, 10.47, 10.94, 11.49, 11.04, 9.57, 8.17, 7.26, 7.69, 7.74, 8.17, 8.17, 7.74, 7.26, 6.94, 9.24, 8.82, 4.94, 4.74, 5.29, 5.75, 5.6, 4.34, 3.13, 1.24, -0.0, -0.0, 0.61, 0.94, 0.89, 0.89, 0.96, 0.96, 0.96, 2.8, 3.47, 4.74, 7.45, 6.45, 7.2, 8.4, 9.66, 11.51, 12.09, 12.45, 13.11, 12.04, 9.06, 3.35, -3.72, -5.36, -3.53, -1.9, -0.65, -0.0, -0.0, 0.88, 0.79, -0.0, -0.0, -0.0, 0.96, 1.55, -0.0, -1.79, 0.0, 0.88, 0.88, 4.34, 4.34, 4.77, 4.77, 4.77, 4.8, 5.24, 5.09, 5.09, 5.51, 5.57, 5.57, 5.88, 6.3, 6.3, 6.79, 7.21, 7.26, 7.51, 7.58, 8.0, 8.0, 8.48, 8.48, 8.48, 8.48, 8.0, 8.17, 8.17, 9.11, 9.43, 9.86, 10.34, 10.94, 10.94, 10.04, 8.64, 7.69, 7.26, 7.74, 8.17, 8.17, 7.58, 7.51, 7.51, 9.36, 9.24, 3.35, 1.61, 1.6, 3.16, 4.0, 4.4, 4.3, 2.68, 1.24, 0.61, 0.57, 0.61, 0.83, 0.89, 1.84, 1.84, 2.76, 3.22, 3.79, 4.11, 6.94, 8.05, 8.0, 7.2, 8.17, 10.58, 12.86, 13.92, 13.11, 12.15, 11.79, 10.45, 5.4, -3.6, -5.29, -3.13, -2.4, -1.24, -0.0, 1.16, 1.8, 2.21, -0.0, -0.0, 0.87, 2.3, 1.83, -0.0, 0.0, 0.98, 0.98, 4.77, 4.77, 4.77, 4.77, 4.77, 4.8, 5.24, 5.09, 5.09, 5.51, 5.57, 5.57, 5.99, 6.3, 6.3, 6.79, 6.79, 7.26, 7.69, 7.69, 8.0, 8.0, 8.0, 8.48, 8.48, 8.48, 8.0, 7.51, 9.24, 8.48, 9.21, 9.7, 9.86, 10.34, 10.5, 10.04, 9.11, 7.74, 7.26, 7.69, 7.74, 7.74, 7.74, 7.58, 8.22, 9.01, 9.39, 7.06, 3.98, 2.49, 2.5, 3.07, 3.6, 3.6, 3.39, 2.63, 1.9, 1.16, 1.13, 1.23, 2.8, 2.8, 3.22, 2.95, 3.79, 4.29, 3.93, 6.51, 8.05, 8.49, 7.1, 7.37, 9.74, 12.96, 14.28, 13.23, 10.04, 9.04, 11.09, 10.32, 4.6, -2.98, -4.85, -3.58, -2.12, -0.8, 0.71, 2.5, 4.34, 2.24, -0.0, 1.2, 1.8, 2.68, 0.98, 1.79, 0.99, 0.99, 4.77, 4.77, 4.77, 4.77, 4.77, 4.8, 5.24, 5.24, 5.09, 5.51, 5.57, 5.57, 5.99, 5.81, 6.3, 6.79, 6.79, 7.21, 7.26, 7.69, 7.74, 8.0, 8.0, 8.48, 8.48, 8.48, 8.0, 7.51, 7.81, 9.9, 8.3, 8.3, 8.72, 9.39, 10.01, 10.01, 9.11, 7.58, 7.26, 7.26, 7.74, 7.87, 7.74, 8.17, 8.48, 9.21, 9.86, 9.68, 8.47, 7.13, 5.34, 4.43, 3.39, 2.91, 3.07, 3.13, 2.68, 2.5, 1.61, 1.8, 2.22, 3.63, 4.43, 2.95, 2.95, 2.95, 3.48, 4.98, 7.01, 7.94, 7.37, 7.55, 8.49, 11.15, 14.73, 14.28, 9.06, 6.11, 7.06, 9.2, 8.48, 4.8, 0.0, -3.9, -3.13, -1.79, -0.0, 2.12, 4.92, 4.02, 2.24, 1.34, 1.0, 1.98, 2.68, 1.13, 1.58, 1.58, 4.77, 4.77, 4.77, 4.77, 4.77, 4.8, 5.24, 5.24, 5.09, 5.51, 5.57, 5.57, 5.99, 5.99, 6.3, 6.3, 6.79, 6.79, 7.26, 7.69, 7.69, 8.17, 8.0, 8.0, 8.48, 8.48, 8.0, 8.0, 8.22, 8.3, 8.3, 8.0, 8.0, 8.48, 9.11, 9.57, 9.11, 7.58, 7.21, 7.21, 7.69, 7.87, 7.87, 7.74, 8.64, 8.96, 9.39, 9.43, 9.11, 8.79, 7.97, 6.61, 5.34, 3.98, 3.53, 3.13, 2.68, 2.63, 2.5, 2.23, 4.02, 4.02, 4.43, 3.22, 2.2, 2.2, 2.95, 4.29, 5.6, 6.64, 6.57, 8.48, 9.39, 10.89, 14.09, 14.75, 11.18, 7.6, 5.75, 6.4, 7.47, 7.71, 5.59, 1.2, -2.97, -2.24, 0.89, 1.79, 4.47, 4.47, 3.13, 1.34, 0.89, 1.58, 2.98, 2.68, 2.4, 2.4, 4.77, 4.77, 4.77, 4.77, 4.77, 4.8, 5.24, 5.24, 5.09, 5.51, 5.57, 5.57, 5.99, 5.99, 6.04, 6.3, 6.79, 6.79, 7.21, 7.26, 7.69, 7.74, 8.0, 8.0, 8.0, 8.48, 8.42, 8.0, 8.22, 8.22, 8.48, 8.48, 8.06, 8.64, 8.64, 9.11, 8.64, 7.69, 6.79, 6.79, 7.21, 7.4, 7.84, 7.87, 8.33, 9.11, 9.11, 9.39, 8.96, 8.96, 8.64, 7.87, 6.94, 5.7, 4.88, 4.02, 3.58, 3.07, 2.91, 3.07, 2.51, 4.29, 4.74, 3.22, 1.7, 1.7, 2.95, 3.93, 4.29, 4.98, 5.75, 8.38, 10.28, 11.05, 12.86, 13.86, 13.39, 11.51, 9.39, 7.37, 6.28, 6.79, 7.21, 5.59, 1.2, -1.26, 0.0, 3.39, 4.82, 4.92, 4.47, 2.68, 1.79, 0.89, 2.0, 3.2, 3.6, 3.6, 4.77, 4.77, 4.77, 4.77, 4.77, 4.8, 5.24, 5.24, 5.09, 5.09, 5.57, 5.57, 5.99, 5.99, 6.04, 6.3, 6.79, 6.79, 7.21, 7.26, 7.69, 7.69, 8.17, 8.0, 8.0, 8.48, 8.48, 8.0, 8.0, 8.0, 8.0, 8.48, 8.48, 8.64, 8.64, 9.11, 8.64, 7.74, 6.79, 6.3, 6.3, 6.94, 7.51, 7.97, 8.33, 9.23, 9.57, 9.54, 8.91, 8.48, 8.48, 8.0, 7.69, 6.94, 6.16, 5.33, 4.47, 4.02, 3.53, 3.2, 3.14, 3.43, 5.36, 3.79, 2.2, 3.48, 3.16, 3.93, 4.4, 4.4, 6.51, 6.45, 10.2, 11.18, 12.04, 12.94, 13.41, 13.41, 12.52, 9.28, 6.79, 5.82, 6.0, 6.28, 4.8, 2.84, 3.35, 4.0, 5.26, 5.73, 5.36, 4.02, 2.24, 1.79, 0.89, 2.68, 4.15, 4.15, 4.77, 4.77, 4.77, 4.77, 4.77, 4.8, 5.24, 5.24, 5.24, 5.09, 5.57, 5.57, 5.57, 5.99, 6.04, 6.47, 6.3, 6.79, 6.79, 7.26, 7.26, 7.69, 7.74, 8.17, 8.0, 8.0, 8.48, 8.42, 8.0, 8.0, 8.0, 8.0, 8.48, 8.48, 8.64, 9.11, 9.11, 8.17, 7.21, 6.3, 6.3, 6.47, 6.6, 8.77, 7.87, 9.23, 9.57, 9.43, 8.79, 8.22, 7.81, 7.51, 7.09, 6.79, 6.51, 6.04, 5.26, 4.92, 4.02, 3.98, 3.6, 3.35, 5.36, 3.79, 3.22, 3.79, 3.16, 3.93, 4.0, 4.4, 4.98, 5.94, 8.85, 12.07, 12.49, 11.84, 12.27, 13.18, 13.18, 10.52, 7.71, 5.43, 4.19, 4.19, 4.8, 5.09, 4.57, 4.82, 5.73, 6.2, 6.64, 5.81, 4.02, 1.79, 1.79, 1.34, 3.13, 3.9, 4.77, 4.77, 4.77, 4.77, 4.77, 4.8, 4.8, 5.24, 5.24, 5.09, 5.57, 5.57, 5.57, 5.99, 6.04, 6.04, 6.3, 6.79, 6.79, 7.21, 7.26, 7.69, 7.69, 8.17, 8.17, 8.0, 8.0, 8.42, 8.0, 8.0, 8.0, 8.0, 8.0, 8.48, 8.48, 9.07, 9.11, 8.64, 7.69, 6.3, 5.81, 5.81, 5.57, 7.63, 7.87, 9.57, 10.18, 9.92, 9.01, 8.0, 7.31, 7.01, 6.6, 6.79, 6.3, 6.04, 5.7, 5.26, 4.92, 4.47, 3.87, 3.6, 6.0, 4.29, 3.93, 3.79, 3.79, 3.16, 3.48, 3.93, 4.4, 6.07, 8.49, 11.18, 13.41, 12.41, 11.61, 12.3, 12.44, 11.71, 10.02, 7.71, 4.84, 2.68, 2.84, 4.15, 4.66, 5.09, 6.02, 6.51, 7.1, 7.1, 5.81, 3.58, 1.79, 1.34, 2.68, 3.13, 4.77, 4.77, 4.77, 4.77, 4.77, 4.77, 4.8, 5.24, 5.24, 5.24, 5.24, 5.57, 5.57, 5.99, 5.99, 6.04, 6.47, 6.3, 6.79, 7.21, 7.26, 7.26, 7.69, 7.74, 8.17, 8.0, 8.0, 8.0, 8.0, 8.0, 8.0, 8.0, 8.0, 8.0, 8.48, 8.48, 9.07, 8.64, 8.17, 6.79, 5.81, 5.4, 5.31, 5.31, 8.72, 9.21, 10.21, 9.88, 8.82, 7.61, 6.8, 6.6, 6.6, 6.3, 5.88, 5.99, 5.57, 5.24, 4.89, 4.47, 3.98, 3.87, 4.11, 5.6, 4.84, 3.79, 2.48, 3.16, 3.48, 3.93, 4.98, 5.26, 8.05, 10.73, 12.96, 12.07, 11.51, 11.37, 11.5, 11.21, 11.03, 10.32, 7.71, 4.8, 2.84, 2.84, 3.83, 5.09, 6.02, 6.45, 6.94, 7.54, 7.1, 5.36, 3.58, 2.68, 2.0, 2.68, 4.34, 4.34, 4.77, 4.77, 4.77, 4.77, 4.8, 5.24, 5.24, 5.24, 5.24, 5.57, 5.57, 5.57, 5.99, 6.04, 6.47, 6.3, 6.79, 6.79, 7.21, 7.26, 7.69, 7.74, 8.17, 8.0, 8.0, 8.0, 8.0, 8.0, 8.0, 8.0, 8.0, 8.0, 8.0, 8.48, 8.64, 8.64, 8.17, 7.09, 6.1, 5.6, 5.47, 5.75, 6.7, 10.66, 9.48, 8.18, 6.79, 6.15, 6.03, 6.28, 6.6, 6.3, 5.81, 5.57, 5.57, 5.24, 4.89, 4.92, 4.47, 3.87, 5.6, 5.21, 4.11, 2.98, 2.48, 3.48, 3.16, 4.98, 4.98, 5.36, 7.6, 8.94, 10.73, 12.91, 12.52, 11.36, 9.42, 8.67, 8.93, 9.84, 9.2, 7.03, 4.84, 3.48, 3.79, 4.6, 5.2, 6.02, 6.45, 6.94, 6.94, 6.2, 5.26, 3.82, 3.39, 3.39, 4.34, 4.34, 4.77, 4.77, 4.77, 4.77, 4.8, 4.8, 5.24, 5.24, 5.24, 5.57, 5.57, 5.57, 5.99, 6.04, 6.47, 6.3, 6.3, 6.79, 7.21, 7.26, 7.69, 7.69, 7.74, 8.17, 8.0, 8.0, 8.0, 8.0, 8.0, 7.58, 7.58, 8.0, 8.0, 8.0, 8.0, 8.64, 8.17, 7.51, 6.51, 6.0, 5.75, 6.41, 7.72, 9.35, 9.71, 7.71, 5.21, 4.29, 5.21, 5.75, 6.51, 6.51, 6.3, 5.81, 5.09, 5.24, 4.89, 4.88, 4.47, 3.98, 4.11, 6.0, 4.43, 3.22, 4.11, 3.48, 4.0, 4.98, 5.73, 5.81, 7.45, 7.54, 10.2, 12.07, 12.52, 12.07, 9.35, 7.2, 6.06, 7.33, 7.69, 7.28, 6.07, 4.89, 4.6, 4.6, 5.4, 5.51, 5.75, 6.16, 6.94, 6.88, 4.98, 4.34, 4.34, 4.34, 4.34, 4.34, 4.34, 4.77, 4.77, 4.77, 4.77, 4.8, 4.8, 5.24, 5.24, 5.67, 5.57, 5.57, 5.99, 5.99, 6.04, 6.47, 6.3, 6.79, 6.79, 7.26, 7.26, 7.69, 7.69, 8.17, 8.0, 8.0, 8.0, 8.0, 8.0, 7.51, 7.51, 7.58, 8.0, 8.0, 8.0, 8.0, 8.17, 7.51, 6.6, 6.1, 6.28, 6.95, 7.76, 9.2, 10.12, 8.64, 6.47, 4.8, 4.4, 5.08, 6.0, 6.51, 6.1, 5.81, 5.09, 5.24, 4.8, 4.44, 4.47, 3.98, 3.7, 5.36, 4.43, 4.43, 4.43, 4.46, 4.4, 5.26, 5.81, 6.26, 6.64, 7.85, 9.21, 10.14, 12.07, 13.31, 11.96, 9.39, 7.55, 6.28, 6.0, 6.0, 6.0, 5.75, 5.94, 5.51, 5.94, 6.02, 6.02, 6.45, 6.45, 6.02, 5.51, 4.98, 4.98, 4.98, 4.34, 4.34, 4.34, 4.77, 4.77, 4.77, 4.77, 4.77, 4.8, 5.24, 5.24, 5.24, 5.57, 5.57, 5.99, 5.99, 6.04, 6.47, 6.3, 6.79, 6.79, 7.21, 7.26, 7.69, 7.69, 7.74, 8.0, 8.0, 8.0, 8.0, 8.0, 7.51, 7.51, 7.51, 7.58, 8.0, 8.0, 8.0, 8.0, 8.0, 7.01, 6.51, 6.28, 6.95, 7.61, 8.91, 9.7, 9.39, 7.74, 6.47, 5.09, 5.09, 5.4, 5.81, 6.1, 5.81, 5.51, 5.24, 4.89, 4.47, 4.47, 4.43, 4.11, 3.72, 5.72, 4.74, 5.6, 4.98, 4.98, 5.36, 6.71, 5.73, 6.64, 7.55, 8.45, 9.35, 10.73, 12.41, 13.18, 12.27, 11.05, 8.91, 7.6, 7.11, 6.51, 6.07, 6.02, 6.45, 6.94, 6.51, 7.01, 6.02, 6.45, 6.02, 5.94, 5.94, 5.94, 5.94, 4.34, 4.34, 4.34, 4.34, 4.77, 4.77, 4.77, 4.77, 4.8, 5.24, 5.24, 5.24, 5.57, 5.57, 5.57, 5.99, 6.04, 6.04, 6.3, 6.3, 6.79, 6.79, 7.26, 7.26, 7.69, 7.69, 7.58, 8.0, 8.0, 8.0, 8.0, 7.51, 7.51, 7.51, 7.51, 7.58, 7.58, 8.0, 8.0, 8.0, 7.51, 6.6, 6.28, 6.41, 7.23, 8.4, 9.01, 8.72, 8.0, 7.21, 6.04, 5.7, 5.7, 5.7, 5.57, 5.57, 5.24, 5.33, 4.92, 4.47, 4.44, 4.3, 4.11, 3.88, 3.43, 5.6, 5.64, 4.82, 5.26, 5.36, 5.81, 5.81, 6.26, 7.15, 7.6, 8.05, 9.39, 11.18, 12.49, 12.27, 12.09, 12.27, 11.14, 8.94, 7.56, 7.11, 6.51, 6.28, 6.57, 7.21, 6.64, 6.16, 6.16, 6.45, 6.45, 5.94, 5.94, 5.94, 4.34, 4.34, 4.34, 4.34, 4.34, 4.77, 4.77, 4.77, 4.8, 5.24, 5.24, 5.24, 5.51, 5.57, 5.57, 5.99, 5.99, 6.04, 6.3, 6.3, 6.79, 6.79, 7.21, 7.26, 7.69, 7.69, 7.51, 7.58, 7.58, 8.0, 7.58, 7.51, 7.51, 7.51, 7.51, 7.51, 7.51, 7.58, 8.0, 8.0, 7.51, 7.01, 6.28, 6.41, 7.34, 8.0, 8.51, 8.72, 7.71, 7.01, 6.3, 6.04, 6.16, 6.23, 5.7, 5.24, 5.33, 4.92, 4.92, 4.47, 4.44, 4.43, 3.87, 3.6, 3.35, 4.84, 5.09, 5.36, 5.81, 5.36, 5.36, 5.26, 5.81, 6.71, 7.15, 7.6, 8.94, 10.28, 11.14, 11.05, 11.84, 12.74, 12.49, 10.28, 8.91, 7.89, 7.21, 6.4, 6.6, 6.6, 6.6, 6.21, 6.21, 5.82, 6.16, 5.75, 5.75, 5.75, 4.34, 4.34, 4.34, 4.34, 4.34, 4.34, 4.77, 4.77, 4.8, 4.8, 5.24, 5.24, 5.09, 5.57, 5.57, 5.99, 5.99, 6.04, 6.3, 6.3, 6.3, 6.79, 7.21, 7.21, 7.26, 7.69, 7.69, 7.51, 7.51, 7.58, 7.58, 7.51, 7.51, 7.51, 7.51, 7.51, 7.51, 7.51, 7.58, 8.0, 8.0, 7.51, 6.8, 6.41, 6.95, 7.48, 8.0, 8.22, 7.31, 6.6, 6.3, 6.47, 6.6, 6.61, 6.23, 5.78, 5.33, 4.92, 4.92, 4.47, 4.47, 4.02, 3.53, 3.39, 3.07, 4.66, 5.09, 5.36, 5.36, 4.92, 5.36, 5.26, 5.81, 6.26, 6.71, 7.6, 8.49, 9.39, 10.25, 10.7, 11.59, 12.94, 12.49, 11.18, 9.81, 8.63, 7.47, 6.94, 6.44, 6.44, 6.55, 6.18, 6.18, 5.49, 5.58, 5.58, 5.58, 5.58, 4.34, 4.34, 4.34, 4.34, 4.34, 4.34, 4.77, 4.77, 4.77, 4.8, 5.24, 5.24, 5.09, 5.51, 5.57, 5.57, 5.99, 6.04, 6.3, 6.3, 6.3, 6.79, 6.79, 7.21, 7.26, 7.26, 7.69, 7.51, 7.51, 7.51, 7.51, 7.51, 7.51, 7.51, 7.51, 7.51, 7.51, 7.51, 7.51, 8.0, 8.0, 7.51, 6.8, 6.67, 6.56, 7.48, 8.0, 7.81, 7.31, 6.51, 6.1, 6.3, 6.47, 6.94, 6.68, 6.23, 5.78, 5.36, 4.92, 4.92, 4.47, 4.02, 3.58, 3.07, 2.91, 3.39, 3.6, 4.38, 4.92, 5.26, 5.73, 5.73, 5.36, 5.81, 6.26, 7.15, 7.6, 8.49, 9.39, 10.25, 11.18, 11.62, 12.04, 12.04, 10.26, 8.4, 6.4, 6.0, 6.28, 5.82, 5.46, 6.6, 5.95, 5.49, 5.15, 5.15, 5.15, 5.15, 4.34, 4.34, 4.34, 4.34, 4.34, 4.34, 4.77, 4.77, 4.77, 4.8, 5.24, 5.24, 5.09, 5.51, 5.57, 5.57, 5.99, 5.99, 5.88, 6.3, 6.3, 6.79, 6.79, 6.79, 7.21, 7.26, 7.26, 7.51, 7.51, 7.51, 7.51, 7.51, 7.51, 7.51, 7.51, 7.51, 7.51, 7.51, 7.51, 7.51, 8.0, 7.93, 7.01, 6.67, 6.41, 6.95, 7.48, 7.48, 7.2, 6.28, 5.89, 6.1, 6.1, 6.94, 7.06, 6.68, 6.23, 5.78, 5.81, 5.36, 4.92, 4.47, 4.02, 3.13, 2.68, 3.39, 3.9, 4.34, 4.92, 4.98, 5.4, 5.51, 5.51, 5.81, 6.26, 6.71, 7.15, 8.05, 8.49, 9.83, 10.73, 10.73, 11.18, 12.07, 11.18, 4.8, 3.39, 3.13, 4.02, 4.92, 5.09, 4.8, 5.2, 5.6, 4.89, 4.89, 4.89, 4.89, 4.34, 4.3, 4.34, 4.34, 4.34, 4.34, 4.77, 4.77, 4.77, 4.8, 5.24, 5.09, 5.09, 5.09, 5.51, 5.57, 5.99, 5.81, 5.88, 6.3, 6.3, 6.3, 6.79, 6.79, 7.21, 7.21, 7.09, 7.51, 7.51, 7.51, 7.51, 7.51, 7.51, 7.51, 7.51, 7.09, 7.09, 7.51, 7.51, 7.51, 8.0, 8.0, 7.51, 6.8, 6.28, 6.56, 6.95, 7.48, 6.95, 6.28, 5.75, 5.75, 6.0, 6.72, 6.94, 6.94, 6.61, 6.16, 6.23, 5.78, 5.33, 4.88, 3.98, 3.58, 3.13, 3.13, 4.02, 4.34, 4.92, 4.82, 4.98, 4.98, 4.89, 4.89, 5.81, 6.26, 6.71, 7.6, 8.05, 9.39, 10.28, 10.28, 10.28, 11.62, 6.02, 1.79, -2.98, -0.99, -0.0, 2.97, 4.02, 3.58, 4.34, 4.34, 4.34, 4.4, 4.4, 4.4, 4.3, 4.3, 4.3, 4.34, 4.34, 4.34, 4.77, 4.77, 4.77, 4.77, 4.8, 5.09, 5.09, 5.09, 5.51, 5.57, 5.57, 5.81, 5.81, 6.3, 6.3, 6.3, 6.72, 6.79, 6.79, 7.21, 7.09, 7.09, 7.51, 7.51, 7.51, 7.51, 7.51, 7.51, 7.09, 7.01, 7.09, 7.09, 7.51, 7.51, 7.58, 8.0, 7.51, 7.01, 6.28, 6.41, 6.95, 6.95, 6.56, 6.28, 5.75, 5.75, 5.6, 6.1, 6.3, 6.3, 6.47, 6.47, 6.16, 6.16, 5.78, 5.33, 4.44, 3.98, 3.53, 3.58, 4.47, 4.47, 5.26, 5.36, 5.29, 5.2, 4.89, 4.11, 5.4, 5.73, 6.26, 7.15, 8.0, 9.24, 9.68, 9.8, 10.25, 11.05, 5.59, -2.24, -4.22, -2.53, -0.0, 1.58, 2.4, 2.4, 2.21, 2.21, 2.8, 3.58, 3.58, 3.58, 4.3, 4.3, 4.3, 4.34, 4.34, 4.34, 4.34, 4.77, 4.77, 4.77, 4.8, 5.09, 5.09, 5.09, 5.51, 5.57, 5.57, 5.81, 5.81, 5.88, 6.3, 6.3, 6.72, 6.79, 6.79, 7.01, 7.01, 7.09, 7.51, 7.51, 7.51, 7.51, 7.51, 7.51, 7.01, 7.01, 7.01, 7.01, 7.09, 7.51, 7.51, 8.0, 7.51, 7.01, 6.28, 6.03, 6.41, 6.95, 6.41, 5.86, 5.75, 5.21, 5.47, 5.6, 6.0, 6.3, 6.3, 6.3, 6.47, 6.04, 6.16, 5.7, 5.24, 4.34, 3.87, 3.98, 4.02, 4.02, 5.73, 5.73, 6.26, 6.17, 5.73, 4.4, 3.93, 4.98, 5.94, 6.94, 8.06, 8.56, 8.99, 9.24, 11.51, 11.05, 5.75, -2.24, -4.22, -2.84, -2.21, -0.0, -0.0, 1.0, -0.0, -0.0, -0.0, 1.9, 1.9, 1.9, 3.87, 3.87, 4.3, 4.3, 4.34, 4.34, 4.34, 4.77, 4.77, 4.77, 4.77, 5.09, 5.09, 5.09, 5.09, 5.51, 5.57, 5.81, 5.81, 5.81, 6.3, 6.3, 6.3, 6.72, 6.6, 7.01, 7.01, 7.01, 7.51, 7.51, 7.51, 7.51, 7.51, 7.09, 7.01, 7.01, 7.01, 7.01, 7.01, 7.51, 7.51, 8.0, 7.93, 7.51, 6.28, 6.28, 6.41, 6.41, 6.41, 5.86, 5.75, 5.21, 5.08, 5.47, 5.6, 5.81, 6.23, 6.23, 5.81, 5.81, 5.81, 5.99, 5.57, 4.6, 4.3, 3.87, 3.98, 4.02, 5.36, 5.81, 6.26, 6.26, 6.26, 5.36, 4.77, 4.6, 5.6, 6.6, 7.76, 8.17, 8.3, 8.3, 11.05, 11.05, 5.58, -3.58, -4.6, -3.93, -2.84, -1.9, -0.0, -0.0, -0.0, -0.0, -0.0, 1.34, 1.34, 1.34, 3.87, 3.87, 3.87, 4.3, 4.34, 4.34, 4.34, 4.77, 4.77, 4.77, 4.77, 4.66, 5.09, 5.09, 5.09, 5.51, 5.57, 5.4, 5.81, 5.81, 5.81, 6.3, 6.3, 6.51, 6.6, 6.6, 7.01, 7.01, 7.09, 7.51, 7.51, 7.51, 7.09, 7.01, 7.01, 7.01, 7.01, 7.01, 7.01, 7.09, 7.51, 7.51, 7.93, 7.51, 7.01, 6.28, 6.03, 6.41, 6.41, 5.86, 5.58, 5.21, 5.08, 5.08, 5.08, 5.81, 5.81, 5.81, 5.81, 5.81, 5.81, 5.81, 5.4, 5.09, 4.6, 4.3, 4.3, 3.98, 4.47, 6.26, 6.26, 6.26, 6.26, 5.81, 5.29, 5.4, 5.58, 6.18, 7.2, 7.82, 7.82, 8.72, 9.97, 10.14, 4.89, -4.34, -5.2, -4.22, -3.83, -2.98, -2.4, -1.26, -0.0, 2.24, 2.24, 2.24, 2.24, 2.24, 3.87, 3.87, 3.87, 4.3, 4.3, 4.34, 4.34, 4.77, 4.77, 4.77, 4.6, 4.6, 5.09, 5.09, 5.09, 5.51, 5.31, 5.4, 5.81, 5.81, 5.81, 6.3, 6.3, 6.51, 6.51, 6.6, 7.01, 7.01, 7.01, 7.01, 7.01, 7.01, 7.01, 7.01, 7.01, 7.01, 7.01, 7.01, 7.01, 7.01, 7.51, 7.51, 7.93, 7.51, 7.01, 6.28, 5.86, 6.03, 6.03, 5.86, 5.29, 4.84, 4.93, 5.08, 5.31, 5.31, 5.81, 5.81, 5.81, 5.4, 5.31, 5.81, 5.81, 5.31, 4.9, 4.6, 4.11, 4.43, 4.43, 5.81, 6.26, 6.2, 5.73, 5.73, 5.51, 5.6, 5.49, 6.18, 7.2, 7.82, 7.82, 8.3, 9.24, 9.97, 4.89, -4.0, -5.31, -4.8, -4.22, -3.6, -2.6, -2.0, -1.79, -2.24, -2.68, -2.24, -2.24, -2.24, 3.87, 3.87, 3.87, 3.87, 4.3, 4.3, 4.34, 4.34, 4.77, 4.77, 4.6, 4.6, 5.02, 5.09, 5.09, 5.09, 5.31, 5.4, 5.81, 5.81, 5.81, 6.23, 6.1, 6.51, 6.51, 6.6, 7.01, 7.01, 7.01, 7.01, 7.01, 7.01, 7.01, 7.01, 7.01, 7.01, 7.01, 7.01, 7.01, 7.01, 7.51, 7.51, 7.51, 7.31, 6.8, 6.28, 5.75, 5.86, 5.86, 5.86, 5.29, 4.84, 4.93, 4.55, 4.9, 5.31, 5.4, 5.81, 5.81, 5.81, 5.31, 5.08, 5.08, 5.08, 5.08, 4.8, 4.6, 4.3, 4.43, 5.73, 5.81, 6.26, 5.81, 5.73, 5.6, 5.95, 5.84, 6.11, 7.2, 7.76, 8.17, 8.3, 9.24, 9.75, 6.21, -2.23, -5.81, -5.09, -4.66, -4.57, -3.6, -2.97, -2.4, -2.68, -3.13, -3.13, -3.13, -3.13, 3.82, 3.82, 3.87, 3.87, 3.87, 4.3, 4.34, 4.34, 4.77, 4.77, 4.6, 4.6, 4.6, 5.09, 5.09, 5.09, 5.31, 5.31, 5.4, 5.81, 5.81, 6.0, 6.1, 6.1, 6.51, 6.51, 6.4, 6.8, 6.8, 6.8, 6.8, 6.8, 6.8, 6.8, 6.8, 6.8, 6.8, 6.8, 6.8, 6.8, 6.8, 7.31, 7.31, 7.31, 6.8, 6.51, 5.75, 5.86, 5.86, 5.86, 5.29, 4.84, 4.93, 4.55, 4.8, 4.9, 5.31, 5.81, 5.81, 5.81, 5.08, 5.08, 5.08, 5.08, 5.08, 4.93, 4.8, 4.52, 4.34, 4.77, 4.89, 6.71, 6.26, 6.26, 6.64, 6.57, 6.21, 6.18, 6.82, 7.76, 8.17, 8.72, 9.66, 10.18, 7.76, 0.0, -5.73, -5.36, -4.85, -4.85, -4.85, -3.95, -3.39, -3.58, -3.58, -3.39, -3.39, -3.39, 3.39, 3.39, 3.82, 3.87, 3.87, 4.3, 4.3, 4.34, 4.34, 4.6, 4.6, 4.6, 4.6, 5.02, 5.09, 4.9, 5.31, 5.31, 5.4, 5.81, 5.6, 6.0, 6.0, 6.1, 6.51, 6.28, 6.28, 6.8, 6.8, 6.8, 6.8, 6.8, 6.8, 6.8, 6.8, 6.8, 6.8, 6.8, 6.8, 6.8, 6.8, 7.2, 7.31, 7.31, 6.8, 6.51, 5.75, 5.75, 5.86, 5.86, 5.29, 4.84, 4.93, 4.55, 4.8, 4.9, 5.31, 5.81, 5.81, 5.6, 5.6, 5.08, 5.08, 5.08, 5.08, 4.93, 4.55, 4.4, 4.6, 4.6, 5.24, 6.71, 6.26, 6.71, 6.26, 6.64, 6.7, 6.18, 6.11, 7.15, 7.82, 8.8, 9.36, 9.9, 8.8, 2.99, -4.29, -5.51, -4.92, -4.92, -5.36, -4.92, -4.47, -3.58, -3.58, -3.39, -3.39, -3.39, 3.39, 3.39, 3.39, 3.82, 3.87, 3.87, 4.3, 4.3, 4.34, 4.6, 4.6, 4.6, 4.6, 5.02, 4.9, 4.9, 5.31, 5.31, 5.31, 5.6, 5.6, 6.0, 6.0, 6.1, 6.28, 6.28, 6.28, 6.28, 6.67, 6.8, 6.8, 6.8, 6.8, 6.8, 6.8, 6.28, 6.28, 6.28, 6.4, 6.8, 6.8, 6.8, 7.2, 7.51, 7.01, 6.51, 6.0, 5.75, 5.49, 5.49, 5.21, 4.84, 4.93, 4.55, 4.55, 4.8, 4.9, 5.31, 5.81, 5.6, 5.6, 5.47, 5.08, 5.08, 4.65, 4.65, 4.65, 4.55, 4.4, 4.4, 5.02, 4.8, 4.92, 6.71, 5.81, 6.64, 6.7, 6.55, 6.11, 7.15, 7.76, 8.82, 9.03, 9.03, 8.8, 5.84, -1.05, -4.54, -4.98, -5.26, -5.29, -5.81, -4.85, -4.38, -3.9, -3.82, -3.82, -3.82, 3.39, 3.39, 3.39, 3.82, 3.87, 3.87, 4.3, 4.3, 4.34, 4.6, 4.6, 4.6, 4.6, 5.02, 4.9, 4.9, 5.31, 5.31, 5.31, 5.6, 5.6, 6.0, 6.0, 6.1, 6.28, 6.28, 6.28, 6.28, 6.67, 6.8, 6.8, 6.8, 6.8, 6.8, 6.8, 6.28, 6.28, 6.28, 6.4, 6.8, 6.8, 6.8, 7.2, 7.51, 7.01, 6.51, 6.0, 5.75, 5.49, 5.49, 5.21, 4.84, 4.93, 4.55, 4.55, 4.8, 4.9, 5.31, 5.81, 5.6, 5.6, 5.47, 5.08, 5.08, 4.65, 4.65, 4.65, 4.55, 4.4, 4.4, 5.02, 4.8, 4.92, 6.71, 5.81, 6.64, 6.6, 6.55, 6.11, 7.15, 7.76, 8.42, 9.05, 9.03, 8.8, 7.2, 3.22, -1.99, -4.54, -4.98, -4.98, -5.73, -5.29, -4.82, -4.0, -3.35, -3.35, -3.35]}, {"header": {"dx": 0.06612293990616946, "dy": 0.0552356325346848, "nx": 98, "ny": 59, "la1": 35.046912555036876, "la2": 31.78801023549047, "lo1": -121.43107172385933, "lo2": -114.95102361305473, "refTime": "2026040918", "parameterCategory": 1, "parameterNumber": 3}, "data": [-1.16, -1.16, -1.16, -1.16, -1.16, -1.16, -1.16, -1.16, -1.16, -1.16, -0.53, -0.61, -0.88, -0.96, 0.0, 0.0, 0.0, 0.0, 0.0, 0.0, 0.0, 0.0, -1.08, -1.98, -1.9, 0.0, -0.0, -1.9, -2.53, -3.16, -3.48, -3.93, -3.93, -4.57, -4.82, -4.92, -4.92, -4.34, -3.35, -2.84, -2.0, -2.99, -4.37, -5.7, -6.4, -6.43, -7.23, -7.36, -5.06, -3.36, -1.67, -0.89, 0.0, 0.0, 0.82, 1.69, 2.49, 3.39, 3.39, 3.29, 3.29, 3.29, 2.6, 2.49, 2.49, 2.49, 2.41, 2.51, 2.61, 2.44, 2.51, 2.49, 2.59, 2.47, 2.7, 1.67, 0.89, 0.74, 0.0, 0.0, -1.08, -2.53, -2.8, -1.9, -1.58, 0.0, 0.0, 0.0, 0.0, -0.89, -0.89, 0.0, 0.95, 2.64, 3.72, 4.58, 5.49, 5.84, -1.16, -1.16, -1.16, -1.16, -1.2, -1.2, -1.2, -1.16, -1.4, -1.2, -1.2, -0.98, -1.05, -1.84, -1.52, 0.0, 0.0, 0.0, 0.0, 0.0, 0.0, 0.0, 0.0, -2.2, -2.8, -2.68, -2.24, -1.58, -2.8, -3.35, -4.0, -4.4, -4.98, -5.26, -5.36, -5.36, -5.36, -5.36, -4.82, -4.0, -3.22, -4.56, -5.21, -6.7, -6.56, -6.65, -5.8, -4.3, -1.75, -0.85, -0.8, 0.0, 0.0, 0.0, 1.43, 2.49, 3.39, 3.29, 3.29, 3.42, 3.42, 3.29, 2.41, 2.41, 2.6, 1.63, 1.7, 2.51, 2.44, 2.53, 2.53, 2.51, 2.6, 1.62, 1.76, 1.76, 0.85, 0.74, 0.0, 0.0, -1.08, -2.53, -2.8, -1.9, -1.58, 0.0, 0.0, 0.0, 0.0, -0.89, -0.89, 0.0, 0.95, 2.64, 3.72, 4.58, 5.49, 5.84, -1.16, -1.16, -1.16, -1.16, -1.2, -1.2, -1.2, -1.4, -1.88, -1.61, -1.2, -1.16, -1.99, -1.84, -2.4, -1.84, -1.98, -0.89, -1.03, 0.0, 0.0, 0.0, 0.0, 0.0, -3.16, -3.13, -3.13, -2.68, -3.13, -3.13, -3.58, -4.02, -4.47, -5.81, -5.29, -6.71, -5.81, -5.81, -6.2, -5.94, -5.46, -5.89, -6.7, -6.7, -6.56, -5.06, -2.41, -0.89, 0.0, 0.0, 0.0, 0.81, 0.85, 1.76, 2.39, 3.39, 3.29, 3.42, 3.42, 3.19, 3.19, 3.19, 3.29, 2.51, 2.51, 2.51, 2.44, 2.44, 2.53, 2.45, 2.45, 2.53, 1.7, 0.79, 0.85, 0.85, 0.85, 0.0, 0.0, 0.0, -0.96, -2.2, -2.84, -2.8, -2.24, -1.58, -0.99, -0.96, -1.72, -1.73, -1.73, 0.0, 0.89, 1.98, 3.0, 3.72, 4.58, 5.06, -1.16, -1.16, -1.16, -1.16, -1.4, -1.2, -1.2, -1.88, -1.88, -1.88, -1.61, -1.61, -1.99, -2.6, -2.8, -3.47, -3.0, -2.82, -1.84, -0.95, 0.0, 0.0, 0.0, 0.0, -0.96, -2.2, -3.58, -4.02, -3.58, -3.39, -3.39, -3.35, -3.16, -3.22, -4.74, -6.0, -7.01, -7.45, -7.37, -7.76, -7.81, -7.97, -7.48, -5.76, -4.25, -2.49, -0.82, 0.0, 0.85, 0.85, 1.5, 1.76, 2.49, 2.6, 3.39, 3.29, 3.42, 3.19, 3.19, 2.44, 3.19, 3.19, 3.42, 3.19, 3.19, 3.32, 3.32, 2.93, 3.53, 2.97, 2.47, 1.65, 0.83, 0.0, 0.0, 0.0, 0.0, 0.0, 0.0, -0.89, -0.78, -1.98, -2.2, -2.53, -2.8, -2.53, -2.0, -2.99, -3.0, -2.82, -1.84, 0.0, 0.96, 2.16, 3.47, 3.72, 3.72, 3.91, -1.16, -1.16, -1.16, -1.16, -1.16, -1.2, -1.2, -1.88, -1.88, -1.88, -1.88, -1.61, -1.99, -1.98, -3.0, -3.72, -3.9, -3.55, -2.82, -2.64, -1.4, -1.63, -1.63, -1.63, -1.05, -1.98, -3.79, -5.09, -5.36, -4.02, -3.82, -2.23, -0.96, -1.03, -1.49, -3.2, -4.74, -6.4, -7.53, -8.4, -8.43, -6.95, -5.76, -4.56, -3.49, -1.68, -0.82, 0.0, 0.0, 0.82, 0.86, 1.7, 1.7, 2.51, 2.44, 2.44, 2.44, 2.44, 2.53, 2.44, 2.44, 3.19, 3.19, 3.32, 4.06, 3.44, 3.44, 3.96, 4.24, 4.13, 3.17, 2.47, 1.44, 0.0, 0.0, -0.78, -0.89, 0.0, -0.85, -1.45, -1.63, -1.96, -2.8, -3.48, -3.72, -2.95, -2.16, -2.8, -2.8, -2.16, -0.96, 0.0, 2.2, 4.11, 3.91, 3.0, 2.8, 2.99, -1.16, -1.16, -1.16, -1.16, -1.16, -1.4, -1.4, -1.88, -1.88, -2.21, -1.88, -1.88, -1.83, -2.32, -3.0, -3.33, -4.58, -4.87, -4.42, -4.42, -3.77, -2.8, -1.63, -1.98, -1.98, -1.52, -1.98, -2.4, -3.48, -4.92, -3.39, -2.84, -1.83, -0.95, -0.84, 0.0, 0.0, 0.0, -4.34, -6.2, -6.0, -5.37, -3.55, -3.6, -2.69, -2.57, -1.68, -1.62, -0.85, 0.0, 0.0, 0.0, 0.82, 0.82, 0.8, 0.83, 1.64, 1.64, 1.71, 1.71, 2.44, 2.51, 3.42, 3.32, 3.44, 3.23, 3.44, 3.32, 4.1, 4.13, 3.28, 3.17, 2.54, 1.64, 0.0, 0.0, -0.85, 0.0, 0.0, -1.73, -2.82, -3.55, -3.72, -4.11, -4.54, -3.91, -3.0, -1.84, -0.96, 0.0, 1.27, 3.72, 4.98, 4.98, 3.91, 2.8, 1.98, 2.16, -1.33, -1.33, -1.16, -1.16, -1.16, -1.16, -1.88, -1.88, -2.53, -2.53, -2.21, -2.21, -2.95, -2.6, -2.66, -2.64, -3.77, -4.68, -5.24, -4.83, -3.91, -2.83, -0.89, 0.0, 0.0, 0.0, 0.0, 1.84, 1.7, 0.0, -3.16, -3.72, -3.22, -2.64, -1.65, -0.84, 0.0, 0.0, 0.0, -0.0, 0.0, 0.0, 0.0, 0.0, 0.0, 0.0, -0.94, -0.89, -1.68, -1.22, 0.0, 0.0, 0.0, 0.0, 0.0, 0.0, 0.86, 0.8, 1.64, 1.64, 2.51, 2.41, 2.61, 2.53, 2.53, 3.23, 2.45, 2.53, 2.45, 2.47, 2.41, 3.36, 2.97, 1.65, 0.82, 0.85, 0.0, 0.0, 0.0, -0.85, -2.82, -3.72, -3.72, -3.91, -4.74, -4.74, -3.55, -1.84, 0.0, 1.05, 2.68, 4.66, 5.51, 4.54, 2.99, 1.98, 1.84, 1.99, -1.33, -1.33, -1.33, -1.33, -1.16, -1.61, -1.61, -1.88, -2.23, -2.79, -3.07, -2.68, -4.29, -4.19, -3.91, -3.9, -4.03, -4.26, -4.83, -4.5, -3.45, -2.44, -0.89, 0.0, 0.0, 0.0, 1.73, 3.2, 4.29, 1.63, 0.0, -1.7, -1.84, 0.0, 0.0, 0.0, 0.0, 0.0, 5.51, 6.51, 6.71, 6.71, 6.0, 5.06, 4.56, 4.37, 2.67, 0.89, 0.0, 0.0, 0.0, 0.0, 0.0, 0.0, 0.0, 0.0, 0.0, 0.82, 0.82, 0.86, 1.63, 1.63, 1.7, 1.58, 1.64, 1.6, 1.65, 0.83, 0.83, 1.65, 1.61, 1.66, 1.66, 1.65, 1.64, 0.75, 0.82, 0.0, 0.0, -0.82, -1.52, -2.47, -2.6, -3.22, -4.01, -3.9, -3.33, -1.96, 0.0, 1.96, 3.22, 4.54, 4.98, 2.99, 1.84, 1.03, 0.96, 0.96, -1.13, -1.13, -1.13, -1.33, -1.84, -1.84, -1.84, -2.23, -2.51, -2.84, -3.35, -3.88, -6.52, -6.32, -5.84, -6.18, -6.01, -5.1, -5.1, -5.53, -5.31, -4.0, -1.84, -1.94, -0.89, 0.0, 0.0, 2.82, 2.99, 1.49, 1.63, 4.43, 5.58, 5.06, 2.8, 0.95, 0.0, 4.43, 7.15, 7.15, 7.6, 7.45, 7.06, 6.9, 6.63, 5.69, 5.86, 4.2, 3.45, 2.69, 1.26, 1.67, 0.85, 0.89, 0.0, 0.0, 0.0, 0.0, 0.0, 0.0, 0.0, 0.0, 0.0, 0.0, 0.82, 0.86, 0.86, 0.8, 0.82, 0.8, 0.83, 0.74, 0.0, 0.0, 0.0, 0.0, 0.0, 0.0, -0.86, -0.76, -1.69, -2.51, -3.22, -3.35, -3.35, -3.22, -2.47, -1.96, 0.0, 1.55, 2.51, 3.11, 2.4, 1.84, 1.03, 1.03, 0.96, 1.19, -1.13, -1.13, -1.13, -1.13, -1.6, -1.84, -1.84, -2.23, -2.84, -3.43, -4.0, -4.65, -4.74, -4.43, -6.45, -7.2, -7.58, -7.15, -6.64, -6.98, -6.98, -6.98, -5.31, -4.37, -4.14, -1.49, 0.0, 1.73, 2.99, 2.99, 4.74, 7.01, 7.6, 7.06, 6.08, 2.82, 3.72, 6.2, 7.6, 7.45, 6.02, 6.0, 5.6, 4.89, 4.43, 4.58, 4.42, 3.8, 3.63, 3.32, 2.57, 1.68, 0.85, 0.0, 0.0, 0.0, -0.82, -1.63, -1.63, -0.85, -0.85, 0.0, 0.0, 1.75, 1.75, 1.69, 1.7, 0.73, 0.0, -0.82, -0.86, -1.46, -1.43, -1.46, -2.22, -2.19, -2.41, -2.6, -2.15, -1.48, -1.52, -2.17, -3.9, -4.11, -3.48, -3.07, -2.4, -1.72, 0.0, 0.0, 1.63, 1.63, 0.89, 0.0, 0.0, 0.0, 0.96, 2.2, -1.13, -1.13, -1.13, -1.13, -1.6, -1.6, -1.8, -2.23, -2.86, -3.48, -4.07, -4.71, -4.75, -3.83, -4.56, -5.24, -5.69, -3.16, -2.6, -2.22, -5.1, -5.53, -4.87, -3.72, -3.0, 0.0, 0.0, 3.0, 4.29, 4.29, 5.06, 6.17, 5.73, 5.4, 4.54, 4.56, 6.08, 7.47, 6.16, 5.58, 5.95, 5.58, 4.89, 5.21, 4.43, 3.91, 3.72, 2.67, 1.75, 1.84, 1.75, 1.68, 0.85, 0.0, 0.0, -0.82, -1.63, -2.6, -3.25, -2.47, 0.0, 2.64, 4.58, 4.42, 4.12, 3.36, 1.69, 0.85, -0.85, -3.39, -4.06, -4.39, -4.31, -4.39, -4.32, -3.76, -3.69, -3.51, -3.51, -2.6, -1.5, -1.47, -2.4, -4.01, -4.46, -3.84, -3.35, -2.4, -0.76, 0.0, 0.0, 0.0, 0.0, 0.0, 0.0, 0.0, 0.0, 1.99, -1.13, -1.13, -1.13, -1.6, -1.8, -1.8, -1.8, -2.23, -2.86, -3.2, -4.11, -4.43, -4.47, -4.03, -3.49, -2.3, -1.16, -0.56, -0.56, 0.0, 0.0, 0.0, 0.0, 0.0, 0.0, 1.26, 2.46, 1.57, 3.2, 3.0, 3.0, 4.43, 4.98, 4.98, 4.6, 4.98, 5.21, 5.58, 5.58, 5.49, 5.06, 5.49, 5.21, 6.0, 5.6, 4.54, 4.29, 3.4, 2.82, 1.32, 1.65, 1.67, 1.75, 1.68, 0.85, 0.0, 0.0, -1.84, -2.82, 0.0, 6.2, 7.85, 7.76, 6.79, 5.89, 5.29, 4.8, 2.49, 0.0, -2.59, -5.09, -5.99, -6.77, -6.33, -6.0, -4.92, -4.2, -4.34, -4.0, -3.06, -1.75, -0.89, -0.94, -3.97, -5.21, -5.2, -4.84, -3.35, -2.53, -1.7, -0.76, -0.82, 0.0, -0.95, -0.94, -0.89, 0.0, 1.03, -1.13, -1.13, -1.13, -1.8, -1.8, -1.8, -1.8, -2.48, -2.22, -2.86, -3.49, -4.12, -4.47, -4.71, -3.49, -2.35, -1.14, 0.0, 0.0, 0.55, 0.54, 1.11, 1.71, 1.14, 1.71, 1.71, 2.28, 2.33, 1.69, 0.53, 0.0, 1.84, 3.91, 4.29, 4.57, 4.98, 4.6, 4.89, 4.74, 4.58, 4.58, 5.15, 5.6, 5.51, 6.51, 6.0, 6.4, 5.06, 4.56, 2.99, 2.35, 1.65, 2.54, 4.03, 4.6, 6.01, 4.37, 1.4, -2.8, 4.54, 9.35, 9.24, 8.3, 7.76, 7.81, 7.68, 7.52, 7.36, 4.56, 1.84, 0.0, -3.45, -6.31, -6.83, -5.89, -5.24, -4.42, -3.55, -3.0, -3.0, -1.63, -0.89, -0.83, -0.95, -4.74, -6.21, -5.6, -4.22, -3.16, -2.53, -2.53, -1.7, -1.6, -1.73, -1.75, -1.75, -0.89, 0.0, -1.13, -1.27, -1.27, -1.8, -1.8, -1.58, -1.76, -2.22, -2.44, -2.86, -3.49, -3.84, -4.1, -4.46, -4.0, -3.45, -2.23, -1.76, -0.57, 0.0, 0.0, 0.0, 0.55, 1.13, 1.13, 1.69, 2.24, 2.34, 2.21, 0.57, 0.0, 0.0, 1.4, 2.76, 3.79, 4.29, 4.19, 3.91, 3.47, 3.72, 3.72, 4.54, 5.6, 6.07, 6.26, 6.07, 4.98, 5.72, 4.56, 4.56, 2.99, 2.99, 4.56, 6.8, 6.8, 5.6, 4.83, 1.4, 0.0, 6.57, 9.7, 10.28, 9.74, 9.74, 8.56, 8.4, 8.06, 8.03, 8.15, 6.32, 4.68, 0.96, -2.53, -4.47, -4.47, -3.39, -3.2, -2.21, -1.13, -0.98, -2.2, -1.84, -1.6, -0.82, -2.47, -3.91, -5.94, -5.36, -4.15, -3.16, -3.16, -3.35, -3.22, -2.82, -2.4, -1.84, -0.89, 0.0, -1.27, -1.27, -1.27, -1.8, -1.58, -1.76, -1.76, -2.22, -2.44, -2.84, -3.08, -3.47, -4.1, -4.08, -4.03, -3.49, -2.9, -2.33, -1.67, -1.12, -0.56, 0.0, 0.0, 0.58, 1.14, 1.71, 2.34, 2.9, 2.26, 1.14, 0.0, -0.55, 0.0, 1.32, 2.8, 4.43, 4.29, 3.72, 2.82, 1.98, 2.99, 5.21, 5.51, 5.81, 5.81, 5.81, 5.64, 5.6, 5.21, 4.74, 4.29, 4.29, 6.4, 6.71, 6.07, 5.21, 3.0, 0.76, 2.54, 8.82, 8.45, 8.49, 8.49, 8.38, 8.82, 8.48, 8.4, 7.56, 6.95, 5.46, 4.26, 3.72, 1.05, -0.0, -0.0, -0.0, -0.0, 1.9, 0.0, 0.0, -2.21, -2.48, -2.3, -1.83, -1.55, -1.98, -3.93, -5.36, -4.47, -4.0, -4.29, -4.19, -4.11, -4.01, -3.4, -1.84, -0.89, -0.89, -1.27, -1.11, -1.11, -1.58, -1.58, -1.76, -1.76, -2.44, -2.2, -2.4, -3.08, -3.47, -3.45, -4.08, -3.81, -3.52, -3.45, -2.9, -2.33, -1.74, -1.11, -0.58, 0.0, 0.55, 1.71, 2.32, 2.3, 2.37, 1.73, 1.13, 0.0, -1.11, -1.16, 0.0, 0.0, 2.6, 3.72, 3.55, 2.66, 1.52, 2.95, 4.6, 6.07, 5.81, 5.36, 5.36, 5.36, 5.09, 5.09, 4.84, 5.21, 6.0, 6.51, 5.51, 5.09, 4.11, 3.0, 2.82, 6.01, 8.06, 6.26, 6.26, 6.26, 6.26, 6.94, 6.8, 5.58, 6.01, 5.86, 4.4, 1.98, 2.24, 0.89, 0.89, 1.99, 3.16, 3.82, 3.58, 2.8, 0.0, -1.9, -3.82, -3.35, -3.35, -2.23, -1.08, -1.05, -3.72, -4.47, -4.0, -4.29, -4.8, -4.81, -4.65, -3.91, -3.8, -2.99, -2.99, -1.11, -1.11, -1.11, -1.58, -1.76, -1.76, -1.76, -2.2, -2.2, -2.4, -2.82, -3.04, -3.45, -3.42, -3.6, -3.35, -3.32, -2.93, -2.23, -1.67, -1.11, -0.58, 0.0, 0.58, 1.71, 1.75, 1.79, 1.15, 0.58, 0.0, 0.0, -1.76, -2.33, -2.46, 0.0, 1.6, 3.47, 3.2, 2.8, 3.22, 5.2, 5.51, 6.51, 5.29, 5.81, 5.81, 5.36, 4.92, 4.92, 4.66, 5.09, 5.09, 5.09, 4.46, 3.79, 3.22, 3.47, 4.43, 6.0, 5.6, 5.64, 4.92, 4.47, 4.4, 5.09, 3.93, 4.74, 3.72, 2.99, 1.33, 0.0, -1.13, -0.0, 2.2, 4.92, 5.94, 5.49, 4.58, 3.72, 2.8, 0.0, -2.84, -4.47, -3.58, -3.13, -2.8, 0.0, -3.16, -3.16, -3.48, -4.82, -5.75, -5.75, -5.43, -5.53, -4.46, -4.71, -4.71, -1.11, -1.11, -1.23, -1.76, -1.76, -1.76, -1.76, -1.73, -2.2, -2.18, -2.36, -3.04, -3.0, -3.42, -3.4, -3.37, -3.52, -2.97, -2.39, -1.14, -0.59, -1.16, -0.59, 0.56, 1.72, 1.19, 0.0, 0.0, -0.56, -1.16, -1.75, -2.3, -3.32, -2.26, -0.58, 0.0, 1.7, 2.8, 3.47, 5.21, 6.07, 6.51, 6.07, 6.07, 6.07, 5.64, 4.92, 4.47, 4.47, 4.47, 4.4, 4.4, 3.48, 3.48, 3.79, 3.48, 3.79, 4.46, 4.46, 4.46, 4.46, 4.4, 4.0, 2.84, 3.16, 2.84, 1.41, 0.0, -1.4, -1.28, -1.26, 2.2, 4.98, 5.82, 6.73, 6.83, 6.7, 5.76, 5.06, 4.34, 3.6, 1.05, -3.13, -2.97, -3.58, -3.58, -3.35, -2.0, -2.2, -2.2, -4.0, -5.81, -6.07, -6.07, -5.69, -5.69, -5.0, -5.0, -1.11, -1.23, -1.23, -1.76, -1.76, -1.76, -1.73, -1.73, -2.4, -2.18, -2.36, -2.8, -2.8, -2.77, -3.42, -4.2, -3.37, -2.89, -2.21, -1.11, -1.12, -2.28, -2.23, -1.63, -0.82, -1.17, -1.65, -3.23, -3.25, -2.73, -2.3, -2.25, -2.75, -2.36, -1.7, -0.54, 0.0, 0.0, 1.99, 4.11, 4.4, 4.4, 5.51, 5.09, 4.84, 4.84, 4.66, 4.47, 4.47, 4.47, 4.0, 4.4, 4.4, 3.48, 3.79, 3.48, 2.0, 3.16, 3.48, 3.48, 3.48, 3.48, 3.48, 2.53, 3.2, 2.53, 1.27, 0.0, -1.67, -1.28, 2.54, 5.73, 7.4, 7.4, 6.6, 4.98, 3.32, 2.61, 3.39, 3.36, 3.0, 2.68, -0.0, -1.13, -2.8, -2.8, -3.13, -2.97, -2.0, -1.66, -2.0, -5.26, -6.64, -6.28, -5.49, -5.49, -6.18, -6.18, -1.23, -1.23, -1.23, -1.76, -1.57, -1.57, -1.73, -1.73, -2.4, -2.18, -2.36, -2.32, -2.8, -2.77, -3.42, -3.4, -3.4, -2.96, -3.45, -3.36, -4.06, -3.91, -4.63, -5.63, -5.72, -5.06, -4.17, -2.71, -2.86, -2.19, -1.67, -1.12, -1.13, -1.61, -1.84, -1.11, -0.55, 0.0, 0.0, 0.61, 1.08, 1.11, 1.13, 1.8, 2.23, 3.47, 3.48, 4.47, 4.47, 4.47, 4.24, 4.66, 4.66, 5.09, 3.48, 2.95, 3.48, 1.4, 1.13, 2.0, 2.0, 2.0, 2.0, 4.0, 3.39, 3.35, 2.23, 0.96, 0.0, 2.49, 4.1, 6.54, 6.52, 5.56, 3.18, 0.0, -0.79, -1.65, 0.0, 0.0, 0.89, 3.13, 0.96, -0.0, -0.0, -0.99, -2.4, -2.68, -2.53, -1.8, -0.96, -2.48, -5.26, -6.17, -5.34, -5.58, -5.58, -5.58, -1.23, -1.23, -1.08, -1.08, -1.57, -1.73, -1.73, -1.73, -1.7, -2.18, -2.36, -2.32, -3.0, -2.77, -2.96, -3.4, -3.4, -3.42, -4.08, -5.76, -5.51, -3.83, -4.47, -5.36, -5.7, -4.57, -2.77, -1.65, -0.56, 0.0, 0.0, 0.0, 0.0, -0.63, -1.26, -1.2, -1.13, -0.55, -0.59, -0.53, 0.0, 0.0, 0.0, 0.57, 1.8, 2.8, 3.79, 4.0, 4.47, 4.47, 4.47, 4.92, 4.66, 5.09, 4.46, 3.79, 2.95, 0.0, 0.0, 0.0, 0.0, 0.0, 0.0, 2.84, 2.8, 2.53, 2.23, 1.99, 2.82, 3.32, 5.0, 5.55, 4.85, 1.65, -0.82, -3.2, -5.8, -5.6, -4.3, -2.47, 0.0, 0.0, -0.0, -0.0, -1.08, -2.23, -2.53, -2.68, -3.13, -2.53, -2.2, -1.08, -2.53, -4.47, -5.09, -4.6, -4.19, -4.19, -1.23, -1.08, -1.08, -1.08, -1.73, -1.73, -1.73, -1.73, -1.7, -2.36, -2.16, -2.32, -2.77, -2.77, -2.96, -2.92, -3.4, -3.6, -4.69, -5.29, -4.12, -2.21, -2.14, -3.42, -4.03, -3.45, -2.23, -1.12, 0.0, 0.0, 0.54, 0.0, 0.0, 0.0, 0.0, 0.0, -0.53, -0.57, -1.19, -1.16, -0.53, -0.59, 0.0, 0.0, 1.11, 2.22, 3.22, 4.0, 4.47, 4.92, 4.92, 4.92, 4.66, 4.66, 4.46, 4.11, 3.63, 1.05, -1.55, -3.48, -2.23, -0.98, 0.0, 0.0, 2.21, 2.53, 2.84, 2.2, 2.99, 4.37, 6.3, 7.19, 4.81, 0.85, -3.91, -5.49, -7.22, -7.85, -7.15, -4.71, -1.75, 0.0, 0.0, -0.0, -0.0, -0.0, -0.0, -0.0, -0.0, -3.39, -2.53, -0.87, -0.99, -2.97, -4.38, -4.15, -4.8, -4.8, -1.08, -1.08, -1.08, -1.19, -1.19, -1.73, -1.73, -1.88, -1.7, -2.36, -2.16, -2.32, -2.29, -2.77, -2.75, -2.92, -3.4, -3.37, -4.0, -4.63, -3.42, -2.25, -1.73, -1.67, -2.33, -2.3, -2.25, -1.12, -0.56, 0.0, 0.0, 0.0, -0.55, -0.59, -0.54, 0.0, 0.0, 0.0, -0.55, -0.59, -0.53, -0.53, -0.59, 0.0, 0.55, 1.76, 3.22, 4.47, 5.36, 5.81, 5.81, 5.36, 5.36, 5.09, 5.09, 4.84, 3.63, 3.47, 0.0, -3.16, -3.93, -2.0, -1.13, 0.0, 2.8, 2.53, 2.84, 2.48, 3.22, 4.11, 5.06, 4.0, 2.24, -0.0, -1.7, -3.58, -5.34, -7.07, -7.33, -5.86, -3.6, -0.95, 1.05, 4.4, 4.92, 4.47, 4.34, 4.4, 3.48, 1.27, -2.68, -1.9, -0.99, -2.4, -3.47, -3.9, -4.0, -4.0, -1.08, -1.08, -1.08, -1.08, -1.19, -1.73, -1.73, -1.7, -1.7, -2.36, -2.16, -2.32, -2.29, -2.77, -2.75, -2.92, -2.73, -3.37, -3.35, -3.97, -3.45, -2.9, -2.23, -2.35, -1.71, -1.63, -1.71, -1.69, -1.12, -1.11, -0.55, -0.57, -0.56, -1.11, -1.09, -0.57, 0.0, 0.0, 0.0, -0.53, -0.58, -0.58, -0.58, -0.59, 0.0, 0.57, 1.7, 4.66, 5.36, 5.81, 6.71, 6.26, 5.81, 5.81, 5.51, 4.84, 4.6, 4.89, 3.0, 0.0, -4.4, -3.72, -1.9, 2.68, 3.39, 3.35, 3.16, 2.98, 2.2, 1.19, 0.0, 0.0, 0.0, -0.0, -0.0, -1.41, -3.48, -5.81, -6.64, -5.43, -3.79, -1.63, 0.82, 4.43, 6.21, 6.45, 6.26, 5.81, 5.26, 2.23, -1.6, -2.68, -2.0, -2.4, -2.97, -3.9, -3.9, -3.9, -1.08, -1.08, -1.08, -1.08, -1.19, -1.19, -1.7, -1.7, -1.7, -2.36, -2.16, -2.32, -2.29, -2.29, -2.75, -2.92, -2.89, -2.89, -3.35, -3.52, -3.49, -3.45, -3.42, -2.87, -2.33, -2.23, -1.69, -1.69, -1.76, -1.12, -1.11, -1.16, -1.11, -1.1, -1.69, -1.09, -0.56, -0.56, -0.57, -0.57, -0.57, -0.57, -0.57, -0.58, -0.53, 0.0, 0.0, 1.13, 1.9, 2.63, 4.02, 6.71, 6.71, 6.71, 6.07, 5.51, 5.51, 4.98, 4.74, 3.72, 0.0, -2.53, 0.0, 3.13, 4.02, 4.0, 3.48, 2.95, 1.99, -0.96, -1.75, -1.69, 0.0, 0.0, 0.0, 0.0, -0.98, -2.84, -4.92, -4.98, -4.11, -1.7, 0.81, 3.79, 5.95, 6.16, 5.94, 5.26, 4.47, 3.13, 1.4, -1.74, -2.68, -3.13, -2.97, -3.47, -3.9, -3.9, -1.08, -1.08, -1.08, -1.19, -1.19, -1.19, -1.07, -1.7, -1.7, -1.84, -2.16, -2.32, -2.29, -2.29, -2.75, -2.92, -2.73, -2.89, -2.86, -3.35, -3.52, -3.49, -3.45, -3.42, -2.9, -2.87, -2.33, -1.76, -1.67, -1.67, -1.17, -1.16, -1.11, -1.15, -1.78, -1.71, -1.09, -1.09, -1.09, -1.18, -0.56, -0.56, -0.56, -0.57, -0.53, -0.53, -0.59, 0.0, 0.0, 0.71, 2.68, 4.02, 7.15, 7.6, 7.5, 6.14, 5.81, 5.81, 5.2, 5.06, 3.2, 0.0, 0.0, 4.02, 4.47, 4.57, 4.29, 3.22, 0.0, -0.95, -2.83, -2.6, -0.83, 0.0, 0.84, 0.0, -1.83, -3.47, -3.72, -4.47, -4.0, -1.8, 0.87, 4.22, 5.34, 6.0, 5.6, 4.98, 3.93, 4.0, 4.47, -1.13, -2.98, -3.13, -3.39, -3.82, -3.9, -3.9, -1.08, -1.08, -1.08, -1.19, -1.19, -1.19, -1.07, -1.7, -1.84, -1.67, -2.16, -2.32, -2.29, -2.29, -2.26, -2.92, -2.73, -2.89, -2.86, -2.86, -3.01, -3.32, -3.49, -3.45, -3.45, -2.9, -2.75, -2.33, -2.21, -1.74, -1.74, -1.66, -1.16, -1.17, -1.63, -2.21, -2.23, -1.71, -1.69, -1.69, -1.69, -1.14, -1.07, -0.59, -0.56, -0.57, -0.57, -0.58, -0.59, -0.51, 0.71, 2.24, 3.58, 4.92, 7.15, 6.71, 6.26, 6.26, 5.51, 4.89, 2.82, 1.84, 3.47, 5.36, 6.26, 4.57, 4.29, 1.84, 0.0, 0.0, -1.75, -2.47, -1.63, 0.0, 0.83, 0.81, -1.62, -4.57, -3.72, -3.2, -3.13, 0.0, 3.47, 4.85, 5.31, 5.31, 5.6, 4.89, 4.65, 5.26, 5.75, 5.36, -1.27, -3.82, -3.58, -3.47, -3.9, -3.9, -1.08, -1.08, -1.08, -1.19, -1.19, -1.19, -1.16, -1.7, -1.7, -1.67, -2.16, -2.32, -2.14, -2.29, -2.26, -2.26, -2.73, -2.89, -2.86, -2.86, -2.86, -2.83, -2.83, -3.49, -3.3, -3.45, -2.77, -2.93, -2.9, -2.23, -2.21, -1.74, -1.72, -1.66, -1.69, -2.19, -2.23, -2.23, -2.21, -2.33, -2.33, -1.69, -1.14, -0.57, -0.57, -1.07, -1.69, -1.1, -1.12, -1.14, -0.57, 0.65, 1.86, 3.58, 4.92, 6.71, 6.71, 6.71, 6.16, 5.58, 3.47, 2.99, 4.98, 6.02, 5.51, 6.0, 2.8, 0.96, 0.0, 0.0, -0.85, -1.76, -2.49, -2.6, -1.7, -1.65, -2.49, -4.82, -3.22, -1.13, -0.0, 1.86, 3.58, 4.92, 4.92, 4.92, 4.66, 4.98, 5.4, 5.81, 6.26, 6.26, 2.84, -1.74, -3.47, -3.58, -3.9, -3.9, -1.08, -1.08, -1.08, -1.19, -1.19, -1.07, -1.16, -1.7, -1.7, -1.84, -1.67, -2.32, -2.14, -2.29, -2.44, -2.26, -2.73, -2.89, -2.89, -2.86, -2.86, -2.83, -2.83, -2.97, -2.97, -2.83, -2.83, -2.97, -2.8, -2.25, -2.23, -2.21, -1.66, -1.72, -1.67, -2.28, -2.21, -2.23, -2.21, -2.33, -2.33, -2.21, -1.71, -1.68, -1.75, -1.09, -2.37, -3.56, -3.37, -2.26, -1.67, -0.55, 0.0, 1.86, 3.58, 4.47, 7.15, 7.6, 6.94, 6.57, 5.2, 4.98, 5.73, 6.17, 6.45, 5.58, 3.72, 0.0, -1.84, -1.84, -1.75, -1.69, -2.41, -3.29, -4.93, -4.98, -3.39, -4.4, -3.22, -1.08, -0.0, 2.21, 3.07, 3.58, 4.92, 4.47, 4.38, 5.26, 5.36, 5.81, 5.81, 5.73, 5.31, 1.2, -2.97, -3.58, -4.38, -4.38, -1.08, -1.08, -1.19, -1.19, -1.19, -1.07, -1.16, -1.7, -1.7, -1.84, -1.67, -2.32, -2.14, -2.29, -2.44, -2.26, -2.4, -2.89, -2.89, -2.86, -2.86, -3.01, -2.83, -2.83, -2.83, -2.83, -2.83, -2.83, -2.83, -2.28, -2.25, -2.33, -2.3, -1.72, -1.74, -2.25, -2.33, -2.23, -2.37, -2.21, -2.33, -2.33, -2.21, -2.23, -1.73, -1.68, -3.21, -3.84, -4.74, -4.12, -3.45, -2.8, -1.08, 0.0, 1.86, 3.13, 4.02, 4.88, 7.54, 7.1, 6.2, 5.73, 5.73, 5.73, 5.6, 5.21, 4.74, 1.49, -1.84, -4.5, -4.2, -3.51, -1.64, -3.23, -4.98, -5.73, -4.81, -2.47, -2.23, -2.48, -0.0, 0.59, 1.9, 2.6, 3.13, 4.47, 4.38, 3.95, 4.02, 4.02, 4.47, 4.82, 4.66, 4.47, -0.0, -3.13, -4.38, -4.38, -1.08, -1.08, -1.19, -1.19, -1.19, -1.07, -1.16, -1.7, -1.7, -1.84, -1.67, -1.67, -2.14, -2.29, -2.29, -2.26, -2.4, -2.23, -2.89, -2.71, -2.86, -2.86, -2.83, -2.83, -2.83, -2.83, -2.86, -2.33, -2.33, -2.28, -2.77, -2.9, -2.87, -2.3, -2.3, -2.23, -2.3, -2.37, -2.23, -2.21, -2.33, -2.33, -2.71, -2.89, -2.89, -4.25, -3.36, -2.23, -2.15, -3.2, -3.16, -2.86, -2.2, -1.23, 0.0, 1.86, 3.07, 3.98, 4.88, 6.65, 6.2, 5.51, 5.51, 4.6, 4.29, 3.79, 4.11, 1.73, 0.0, -4.0, -4.5, -3.63, -1.76, -1.61, -3.28, -5.73, -5.67, -4.21, -2.41, -2.16, -1.8, -0.88, -0.0, 1.2, 1.86, 2.68, 2.91, 3.6, 2.21, 2.68, 3.13, 3.47, 3.83, 4.57, 2.68, -2.24, -3.9, -3.9, -1.19, -1.19, -1.19, -1.19, -1.19, -1.07, -1.16, -1.7, -1.7, -1.84, -1.67, -1.67, -1.8, -2.29, -2.29, -2.26, -2.26, -2.23, -2.37, -2.37, -2.86, -2.86, -2.86, -2.83, -2.83, -2.83, -2.86, -2.89, -3.36, -2.83, -3.45, -3.42, -2.9, -2.87, -2.21, -2.23, -2.28, -2.21, -2.23, -2.37, -2.21, -2.21, -2.21, -2.71, -3.52, -3.94, -2.93, -1.18, -0.57, -1.0, -1.88, -1.84, -1.8, -1.8, -1.13, 0.53, 1.9, 2.91, 3.39, 4.3, 5.6, 5.6, 4.29, 3.93, 3.79, 3.22, 2.95, 1.63, 0.0, 0.0, -0.89, -1.84, -1.39, 0.0, -0.84, -4.13, -5.86, -6.57, -4.75, -2.95, -2.76, -1.98, -0.81, -0.0, 0.71, 1.6, 2.12, 1.88, 1.08, 0.0, 1.79, 2.4, 3.6, 3.58, 3.9, 0.0, -2.97, -2.97, -1.19, -1.19, -1.19, -1.19, -1.19, -1.07, -1.16, -1.16, -1.7, -1.84, -1.67, -1.67, -1.8, -2.32, -2.29, -2.26, -2.26, -2.4, -2.23, -2.37, -2.21, -2.86, -2.86, -2.83, -2.83, -2.83, -2.86, -2.89, -3.35, -4.13, -3.32, -3.32, -3.49, -2.93, -2.35, -2.35, -2.28, -2.71, -2.23, -2.23, -2.21, -1.69, -2.21, -2.33, -2.83, -3.45, -2.9, -1.71, -0.56, -0.59, -0.53, -0.63, -1.13, -1.16, -0.61, 0.0, 0.0, 1.88, 2.68, 3.6, 3.88, 4.54, 4.43, 3.93, 3.93, 3.93, 3.48, 1.99, 1.4, 1.32, 1.84, 0.84, 0.0, -0.8, -0.82, -0.84, -2.47, -5.24, -5.49, -4.6, -2.83, -2.4, -2.68, -0.98, -0.0, -0.0, 0.89, 0.71, 0.0, 0.0, 0.0, 0.0, 2.0, 2.98, 3.58, 3.39, -1.58, -1.58, -1.19, -1.19, -1.19, -1.19, -1.19, -1.07, -1.16, -1.16, -1.7, -1.84, -1.67, -1.67, -1.8, -1.8, -2.29, -2.29, -2.26, -2.26, -2.23, -2.37, -2.37, -2.33, -2.86, -2.86, -2.83, -2.83, -2.86, -2.86, -3.52, -3.32, -3.32, -2.86, -2.86, -2.83, -2.28, -2.25, -2.28, -2.71, -2.4, -2.4, -2.37, -1.69, -1.69, -2.21, -2.3, -2.8, -2.93, -2.77, -2.28, -1.65, -1.14, -1.1, -0.53, -0.57, -0.59, 0.0, 0.0, 0.53, 1.88, 2.79, 5.36, 5.36, 4.43, 4.84, 4.4, 4.4, 3.93, 3.22, 2.8, 2.66, 2.82, 2.83, 0.0, -2.51, -2.49, 0.0, 0.0, 0.0, -2.47, -3.2, -2.99, -2.31, -1.6, -2.4, -0.99, -0.0, 0.0, 0.0, 0.0, 0.0, 0.0, 0.0, 0.0, 1.58, 1.98, 3.58, 1.2, 1.2, -1.19, -1.19, -1.19, -1.19, -1.19, -1.07, -1.16, -1.16, -1.7, -1.84, -1.67, -1.67, -1.8, -1.8, -1.65, -2.29, -2.26, -2.26, -2.4, -2.23, -2.37, -2.21, -2.86, -2.86, -2.86, -2.83, -3.01, -2.86, -3.52, -3.52, -2.83, -2.83, -2.69, -2.3, -2.3, -2.28, -2.3, -2.37, -2.26, -2.26, -2.4, -1.71, -1.81, -1.69, -1.67, -2.28, -2.28, -2.93, -2.8, -2.8, -2.3, -1.69, -1.73, -1.14, -0.61, 0.0, 0.0, 0.61, 1.16, 1.84, 3.14, 5.72, 4.74, 4.84, 5.09, 5.09, 3.93, 2.95, 3.22, 2.99, 2.47, 1.4, 0.0, -1.7, -1.61, 0.0, 0.79, 1.64, 0.0, -1.84, -2.35, -2.26, -2.4, -1.6, -2.4, -1.26, -1.34, -1.13, -0.96, 0.0, 0.0, 0.0, 0.0, 0.0, 1.0, 1.6, 1.8, 1.8, -1.19, -1.19, -1.19, -1.19, -1.19, -1.07, -1.16, -1.16, -1.7, -1.7, -1.67, -1.67, -1.8, -1.8, -1.65, -2.29, -2.26, -2.26, -2.4, -2.23, -2.37, -2.37, -2.33, -2.86, -2.86, -2.83, -2.83, -2.86, -2.86, -2.86, -2.86, -2.83, -2.83, -2.3, -2.3, -2.28, -2.3, -2.21, -2.26, -2.29, -2.29, -1.73, -1.16, -1.14, -1.67, -1.73, -2.25, -2.39, -2.97, -2.83, -2.83, -2.86, -2.37, -1.73, -1.12, -0.59, 0.0, 0.0, 0.59, 1.6, 2.51, 2.86, 4.02, 3.79, 4.4, 3.48, 3.16, 2.95, 2.2, 2.2, 1.63, 1.84, 1.28, 0.0, -0.8, -0.81, 0.0, 0.0, 0.0, -1.43, -2.26, -3.33, -3.0, -2.35, -2.4, -2.84, -2.23, -2.0, -1.05, -0.96, 0.0, 0.0, 0.0, 0.0, 0.0, 0.0, 1.66, 1.66, -1.19, -1.19, -1.19, -1.19, -1.19, -1.07, -1.16, -1.16, -1.16, -1.7, -1.67, -1.67, -1.67, -1.8, -1.65, -1.76, -2.29, -2.26, -2.26, -2.23, -2.23, -2.37, -2.21, -2.33, -2.86, -2.86, -2.83, -3.01, -2.86, -2.86, -2.86, -2.86, -2.83, -2.83, -2.3, -2.28, -2.28, -2.33, -2.4, -2.29, -2.29, -1.76, -1.2, -1.75, -1.69, -1.73, -2.25, -2.77, -3.3, -3.52, -3.35, -2.89, -2.73, -2.26, -1.63, -1.65, -1.05, 0.0, 0.0, 0.57, 1.8, 2.23, 4.02, 3.79, 4.29, 3.79, 3.16, 2.95, 2.0, 2.2, 1.99, 1.98, 1.26, 0.0, -0.83, -2.37, -2.45, -2.47, -2.47, -2.1, -2.31, -3.11, -3.35, -3.35, -2.4, -1.7, -1.83, -0.96, -0.96, -0.89, -0.95, 0.0, 0.0, 0.0, 0.0, 0.0, 0.0, 0.98, -1.19, -1.19, -1.19, -1.19, -1.19, -1.07, -1.07, -1.16, -1.16, -1.7, -1.67, -1.67, -1.67, -1.8, -1.65, -1.65, -2.29, -2.26, -2.26, -2.4, -2.23, -2.37, -2.37, -2.33, -2.33, -2.86, -2.86, -3.01, -2.86, -2.86, -2.86, -2.86, -2.86, -2.83, -2.83, -2.42, -2.28, -2.3, -2.37, -2.29, -2.32, -2.32, -1.67, -2.54, -1.69, -2.25, -3.39, -4.08, -3.94, -4.0, -3.37, -2.92, -2.75, -2.26, -2.29, -1.65, -1.14, -1.05, 0.0, 0.0, 1.11, 1.8, 3.0, 3.22, 2.95, 3.79, 3.79, 3.16, 3.48, 2.95, 2.2, 1.52, 0.0, 0.0, 0.0, -1.65, -3.32, -4.1, -3.66, -2.93, -2.31, -2.31, -3.22, -3.58, -2.84, -1.66, -1.55, -1.7, -1.72, -1.63, -0.89, -0.89, 0.0, 0.0, 0.0, 0.0, 0.0, 0.0, -1.19, -1.19, -1.19, -1.19, -1.19, -1.19, -1.07, -1.16, -1.16, -1.16, -1.16, -1.67, -1.67, -1.8, -1.8, -1.65, -1.76, -2.29, -2.26, -2.4, -2.23, -2.23, -2.37, -2.21, -2.33, -2.86, -2.86, -2.86, -2.86, -2.86, -2.86, -2.86, -2.86, -2.86, -2.83, -2.83, -2.42, -2.3, -2.33, -2.26, -2.32, -2.16, -2.36, -2.36, -3.49, -3.45, -4.54, -5.23, -5.29, -4.69, -3.4, -2.75, -2.75, -2.29, -2.14, -1.8, -1.67, -1.16, -0.54, 0.0, 0.57, 1.11, 1.76, 2.8, 3.22, 3.79, 3.72, 3.16, 3.48, 2.95, 1.99, 1.05, 0.0, 0.0, 0.0, 0.0, -1.64, -4.06, -4.93, -4.48, -3.68, -2.95, -2.31, -2.4, -2.84, -2.84, -2.3, -1.7, -1.72, -1.84, -1.73, -0.94, -0.89, 0.0, 0.0, 0.0, -1.0, 0.0, -1.08, -1.08, -1.19, -1.19, -1.19, -1.19, -1.07, -1.16, -1.16, -1.16, -1.16, -1.67, -1.67, -1.67, -1.8, -1.65, -1.76, -2.29, -2.26, -2.26, -2.4, -2.23, -2.37, -2.21, -2.33, -2.86, -2.86, -2.86, -2.86, -2.86, -2.86, -2.86, -2.86, -2.86, -2.86, -2.83, -2.3, -2.3, -2.33, -2.73, -2.77, -2.8, -3.04, -3.45, -4.46, -6.56, -5.02, -5.46, -5.1, -4.47, -3.84, -3.42, -2.75, -2.29, -2.32, -1.67, -1.67, -1.16, -0.54, 0.0, 0.0, 1.11, 2.8, 3.47, 4.11, 4.46, 3.72, 3.48, 3.16, 1.99, 1.99, 0.0, 0.0, 0.0, 0.0, 1.17, 0.0, -2.44, -5.14, -5.52, -5.95, -5.3, -4.6, -3.91, -3.22, -3.48, -3.79, -2.76, -2.6, -1.72, -1.84, -1.73, -1.73, -0.89, -1.05, -1.27, -1.13, -1.13, -1.08, -1.08, -1.19, -1.19, -1.19, -1.19, -1.07, -1.07, -1.16, -1.16, -1.16, -1.67, -1.67, -1.67, -1.8, -1.65, -1.76, -2.29, -2.29, -2.26, -2.4, -2.23, -2.37, -2.37, -2.21, -2.33, -2.86, -2.86, -2.86, -2.86, -2.86, -2.71, -2.71, -2.86, -2.86, -2.86, -2.86, -2.3, -2.33, -2.89, -2.96, -3.0, -3.45, -4.08, -5.34, -5.26, -4.57, -3.56, -3.47, -3.22, -3.47, -3.45, -2.96, -2.96, -2.29, -2.32, -1.7, -1.16, -0.54, -0.61, 0.0, 0.57, 1.76, 3.0, 4.43, 4.84, 4.11, 3.48, 2.0, 1.99, 0.96, 0.0, -1.49, -0.94, -1.28, 0.0, 0.0, 0.0, -0.85, -3.6, -5.3, -5.86, -5.38, -4.37, -3.79, -3.91, -2.76, -2.76, -2.16, -1.84, -2.47, -2.64, -1.73, -1.96, -1.99, -1.08, -1.08, -1.08, -1.08, -1.08, -1.08, -1.19, -1.19, -1.19, -1.19, -1.07, -1.07, -1.16, -1.16, -1.26, -1.67, -1.67, -1.8, -1.8, -1.65, -1.76, -2.29, -2.26, -2.26, -2.23, -2.23, -2.37, -2.37, -2.33, -2.86, -2.86, -2.86, -2.86, -2.86, -2.89, -2.89, -2.71, -2.86, -2.86, -2.86, -2.86, -2.33, -2.89, -2.75, -2.77, -3.42, -4.05, -4.44, -4.6, -3.57, -2.3, -1.76, -2.4, -2.2, -2.82, -3.0, -2.96, -2.77, -2.32, -1.7, -1.16, -1.07, -0.55, 0.0, 0.57, 1.58, 4.02, 4.43, 4.43, 4.43, 2.98, 2.2, 1.05, 0.0, 0.0, -0.95, -1.75, -1.84, -1.69, 0.0, 1.66, 1.6, 0.0, -0.84, -2.35, -3.0, -3.0, -3.0, -2.47, -1.98, -1.84, -1.98, -1.72, -1.72, -1.84, -1.84, -1.72, -1.84, -1.99, -1.99, -1.99, -1.08, -1.08, -1.08, -1.19, -1.19, -1.19, -1.19, -1.19, -1.07, -1.16, -1.16, -1.16, -1.67, -1.67, -1.8, -1.8, -1.65, -1.76, -2.29, -2.26, -2.26, -2.4, -2.23, -2.37, -2.37, -2.21, -2.86, -2.86, -2.86, -2.86, -2.86, -2.89, -2.89, -2.89, -2.71, -2.86, -2.86, -2.86, -2.86, -2.86, -2.92, -2.96, -3.42, -4.05, -4.69, -4.16, -3.42, -2.93, -2.21, -1.76, -1.7, -1.7, -2.16, -2.32, -2.77, -2.32, -1.84, -1.16, -0.54, 0.0, 0.0, 0.63, 1.76, 2.48, 4.29, 4.74, 2.8, 1.99, 1.99, 0.0, 0.0, -0.96, -0.95, -0.84, -0.85, -0.85, 0.0, 1.65, 2.47, 2.45, 1.7, 0.74, 0.0, -0.79, -1.63, -1.52, -1.72, -1.84, -1.73, -1.63, -1.4, -1.72, -1.84, -1.72, -1.98, -1.98, -1.98, -1.98, -1.08, -1.08, -1.08, -1.08, -1.19, -1.19, -1.19, -1.19, -1.07, -1.16, -1.16, -1.16, -1.67, -1.67, -1.67, -1.8, -1.65, -1.65, -2.29, -2.29, -2.26, -2.26, -2.23, -2.23, -2.37, -2.37, -2.71, -2.86, -2.86, -2.86, -2.86, -2.89, -2.89, -2.89, -2.89, -2.71, -2.71, -2.86, -2.86, -2.86, -2.89, -2.75, -3.42, -4.08, -4.45, -4.2, -3.94, -3.49, -2.86, -2.4, -1.65, -1.14, -1.14, -1.14, -1.67, -1.67, -1.16, -0.59, 0.0, 0.0, 0.55, 1.23, 1.76, 2.22, 2.86, 2.8, 1.41, 0.96, 1.05, 0.0, 0.0, 0.0, 0.0, 0.0, 0.0, 0.0, 0.0, 0.0, 0.83, 2.45, 3.23, 2.45, 0.86, 0.0, -0.76, -0.79, -1.63, -2.35, -2.82, -2.4, -2.66, -2.64, -2.64, -1.84, -1.84, -1.98, -1.98, -1.98, -1.08, -1.08, -1.08, -1.08, -1.08, -1.19, -1.19, -1.19, -1.07, -1.16, -1.16, -1.16, -1.84, -1.67, -1.67, -1.8, -1.8, -1.65, -2.29, -2.29, -2.26, -2.26, -2.4, -2.23, -2.37, -2.37, -2.89, -2.71, -2.71, -2.86, -2.71, -2.89, -2.89, -2.89, -2.89, -2.89, -2.89, -2.71, -2.86, -2.86, -2.89, -2.92, -3.42, -4.08, -4.28, -4.0, -3.97, -3.49, -3.56, -2.92, -2.29, -1.65, -1.12, -0.57, -1.14, -1.16, -0.59, 0.0, 0.0, 0.0, 0.55, 0.63, 1.11, 1.8, 2.23, 3.22, 1.7, 0.0, 0.0, 0.0, 0.0, 1.05, 0.0, 0.0, 0.0, 0.0, 0.0, 0.0, 0.86, 1.7, 2.37, 2.39, 0.83, 0.0, -0.74, -1.58, -2.4, -3.2, -3.77, -3.77, -3.77, -3.55, -3.55, -3.33, -2.64, -2.47, -2.47, -2.47, -1.08, -1.08, -1.08, -1.08, -1.08, -1.08, -1.19, -1.19, -1.07, -1.07, -1.16, -1.16, -1.7, -1.67, -1.67, -1.8, -1.8, -1.65, -2.29, -2.29, -2.29, -2.26, -2.4, -2.4, -2.23, -2.37, -2.37, -2.89, -2.89, -2.71, -2.71, -2.89, -2.89, -2.89, -2.89, -2.89, -2.89, -2.89, -2.71, -2.86, -2.86, -2.89, -3.4, -4.08, -4.05, -4.03, -4.0, -3.52, -3.37, -2.75, -2.29, -1.76, -1.2, -1.1, -0.57, -0.58, -0.59, 0.0, 0.0, 0.0, 0.0, 0.0, 0.59, 1.13, 1.84, 1.55, 1.7, 0.0, 0.0, 0.0, 0.0, 1.05, 0.0, 0.0, 0.0, 0.0, 0.0, 0.0, 0.85, 0.82, 0.83, 0.81, 0.83, 0.0, -0.75, -2.35, -2.99, -3.09, -4.03, -4.03, -4.68, -4.42, -4.42, -4.58, -3.72, -3.72, -3.72, -3.72, -1.08, -1.08, -1.08, -1.08, -1.08, -1.08, -1.19, -1.19, -1.19, -1.07, -1.16, -1.16, -1.7, -1.84, -1.67, -1.67, -1.8, -1.65, -2.29, -2.29, -2.29, -2.26, -2.26, -2.4, -2.23, -2.23, -2.37, -2.89, -2.89, -2.89, -2.89, -2.89, -2.89, -2.89, -2.89, -2.89, -2.89, -2.89, -2.89, -2.86, -2.86, -2.89, -3.4, -3.64, -3.83, -4.03, -4.0, -3.35, -3.37, -2.96, -2.77, -2.29, -1.76, -1.73, -0.56, -0.57, -0.58, 0.0, 0.0, 0.0, 0.0, 0.0, 0.0, 0.61, 1.16, 1.13, 1.8, 0.88, 0.0, -1.05, -0.96, -0.96, 0.0, 0.0, 0.0, 0.0, 0.0, 0.0, 0.0, 0.85, 0.0, 0.0, 0.8, 0.8, -0.73, -3.06, -3.2, -3.0, -2.35, -3.33, -3.9, -3.77, -3.97, -4.58, -4.29, -4.29, -4.29, -4.29, -1.08, -1.08, -1.08, -1.08, -1.08, -1.08, -1.19, -1.19, -1.19, -1.07, -1.16, -1.16, -1.7, -1.84, -1.67, -1.67, -1.8, -1.8, -2.14, -2.29, -2.29, -2.26, -2.26, -2.26, -2.4, -2.23, -2.23, -2.89, -2.89, -2.89, -2.89, -2.89, -2.89, -2.89, -2.89, -2.89, -2.89, -2.89, -2.89, -2.89, -2.86, -3.05, -2.92, -3.64, -4.08, -4.05, -4.03, -4.03, -3.6, -3.42, -3.21, -2.77, -2.77, -1.73, -1.18, -0.56, -0.57, -0.58, 0.0, 0.0, 0.0, 0.0, 0.0, 0.0, 0.0, 1.13, 0.98, 1.08, 0.0, -1.99, -2.16, -1.84, -1.84, 0.0, 0.0, 0.0, 0.0, 0.0, 0.0, 0.0, 0.0, 0.0, 0.0, 0.0, 0.0, -2.4, -1.13, 0.0, 0.0, 0.0, -1.7, -2.4, -2.6, -2.8, -3.91, -3.91, -3.91, -3.91, -1.08, -1.23, -1.08, -1.08, -1.08, -1.08, -1.19, -1.19, -1.19, -1.07, -1.16, -1.7, -1.7, -1.7, -1.84, -1.67, -1.8, -2.32, -2.14, -2.29, -2.29, -2.29, -2.26, -2.26, -2.4, -2.4, -2.73, -2.89, -2.89, -2.89, -2.89, -2.89, -2.89, -2.89, -2.89, -2.73, -2.73, -2.89, -2.89, -2.89, -2.86, -2.86, -2.89, -3.4, -3.42, -3.83, -4.05, -4.03, -4.05, -3.42, -3.45, -3.45, -3.0, -2.44, -1.73, -1.73, -1.1, -1.12, -0.57, -0.58, -0.59, -0.61, -0.57, 0.0, 0.0, 0.0, 0.0, 1.08, 0.0, -0.96, -1.99, -2.99, -3.91, -3.91, 0.0, 0.0, 0.0, 0.0, 0.0, 0.0, 0.0, 0.0, 0.0, 0.0, -1.72, 0.0, 1.98, 2.97, 2.68, 0.99, 0.0, 0.0, -1.08, -1.08, -1.08, -2.2, -2.2, -2.2, -1.23, -1.23, -1.23, -1.08, -1.08, -1.08, -1.19, -1.19, -1.19, -1.19, -1.07, -1.7, -1.7, -1.7, -1.84, -1.67, -1.67, -2.32, -2.32, -2.29, -2.29, -2.29, -2.44, -2.26, -2.26, -2.4, -2.73, -2.73, -2.89, -2.89, -2.89, -2.89, -2.89, -2.89, -2.73, -2.92, -2.73, -2.73, -2.89, -2.89, -2.71, -2.86, -2.89, -2.92, -3.42, -4.08, -4.05, -4.05, -3.83, -3.42, -3.45, -3.45, -2.8, -2.77, -2.29, -2.29, -1.76, -1.76, -1.12, -1.12, -0.58, -0.59, -0.55, -0.57, -0.59, 0.0, 0.0, 0.0, 1.05, 0.0, -0.88, -2.6, -3.91, -4.11, -2.16, -0.96, 0.0, 0.0, -0.89, -1.68, -1.76, -0.82, -0.85, -1.7, -1.6, -0.0, 2.53, 2.53, 2.24, 1.58, 1.2, 1.2, 2.21, 2.21, 1.4, 0.0, 0.0, 0.0, -1.23, -1.23, -1.23, -1.08, -1.08, -1.08, -1.08, -1.19, -1.19, -1.19, -1.07, -1.7, -1.7, -1.7, -1.84, -1.67, -1.67, -2.32, -2.32, -2.14, -2.29, -2.29, -2.44, -2.26, -2.26, -2.92, -2.92, -2.73, -2.89, -2.89, -2.89, -2.89, -2.89, -2.89, -2.92, -2.92, -2.92, -2.92, -2.73, -2.89, -2.89, -2.86, -2.89, -2.92, -3.42, -3.84, -4.08, -4.05, -4.08, -4.1, -3.45, -3.47, -3.04, -2.8, -3.0, -2.29, -2.29, -2.29, -1.76, -1.65, -1.12, -1.14, -1.16, -1.08, -1.11, -0.57, 0.0, 0.0, 0.96, 0.96, 0.0, -1.03, -0.96, -2.2, -2.95, -1.99, -1.98, -1.73, -2.69, -2.57, -2.7, -1.68, -1.64, -1.7, -2.47, -0.0, 2.53, 2.84, 2.21, 2.24, 1.79, 2.0, 3.13, 3.13, 3.13, 1.9, 1.9, 1.9, -1.11, -1.11, -1.23, -1.23, -1.08, -1.08, -1.08, -1.19, -1.19, -1.19, -1.19, -1.7, -1.7, -1.7, -1.7, -1.84, -1.67, -2.32, -2.32, -2.32, -2.29, -2.29, -2.29, -2.44, -2.75, -2.92, -2.92, -2.92, -2.89, -2.89, -2.89, -2.89, -2.89, -2.73, -2.92, -2.92, -2.92, -2.92, -2.92, -2.89, -2.89, -2.86, -3.05, -2.89, -3.42, -3.42, -4.08, -4.08, -4.08, -4.1, -3.45, -3.47, -2.82, -3.04, -2.8, -2.32, -2.49, -2.49, -2.32, -2.32, -2.32, -1.8, -1.67, -1.73, -1.23, -1.11, -0.57, 0.0, 0.0, 0.0, 0.0, 0.0, 0.0, 0.0, -1.19, -2.76, -2.8, -3.77, -3.45, -3.63, -3.32, -3.32, -1.7, -1.7, -3.72, -0.0, 2.76, 2.95, 2.84, 1.9, 1.79, 1.79, 2.68, 2.68, 2.24, 0.0, 0.0, 0.0, -1.11, -1.11, -1.11, -1.23, -1.08, -1.08, -1.08, -1.19, -1.19, -1.19, -1.19, -1.55, -1.7, -1.7, -1.7, -1.84, -1.67, -2.16, -2.32, -2.32, -2.32, -2.29, -2.29, -2.96, -2.75, -2.75, -2.92, -2.92, -2.73, -2.89, -2.89, -2.89, -2.73, -2.92, -2.92, -2.92, -2.92, -2.92, -2.92, -2.73, -2.89, -2.89, -3.05, -2.89, -2.92, -3.42, -3.84, -4.08, -4.08, -4.1, -3.72, -3.47, -2.82, -2.82, -2.82, -2.32, -2.32, -2.32, -2.32, -2.32, -2.32, -2.32, -2.16, -1.7, -1.73, -1.23, -1.23, -0.57, 0.0, 0.0, 0.0, 0.0, 0.0, 0.0, -0.88, -2.16, -3.72, -4.42, -4.5, -4.34, -4.34, -3.49, -2.49, -1.69, -3.91, -1.08, 2.6, 2.53, 2.3, 1.98, 1.2, 1.26, 1.79, 0.0, 0.0, 0.0, 0.0, 0.0, -1.11, -1.11, -1.11, -1.23, -1.23, -1.08, -1.08, -1.19, -1.19, -1.19, -1.73, -1.73, -1.7, -1.7, -1.7, -1.84, -2.36, -2.16, -2.32, -2.32, -2.32, -2.29, -2.29, -2.96, -2.96, -2.75, -2.92, -2.92, -2.92, -2.92, -2.92, -2.92, -2.92, -2.92, -2.92, -2.92, -2.92, -2.92, -2.92, -2.92, -2.89, -2.89, -3.05, -2.89, -2.92, -3.42, -4.1, -3.84, -3.84, -4.1, -4.12, -3.22, -3.08, -2.82, -2.36, -2.36, -2.32, -2.32, -2.32, -2.16, -2.36, -2.32, -2.32, -2.36, -2.18, -1.73, -1.76, -0.63, -0.63, 0.0, 0.0, -0.89, -0.96, -0.96, -1.84, -2.8, -4.58, -4.42, -4.5, -4.34, -4.34, -3.32, -3.36, -2.49, -3.91, -2.0, 0.76, 2.4, 2.53, 1.8, 1.74, 1.0, -0.0, -0.0, -0.0, -0.0, -0.0, -0.0, -1.11, -1.11, -1.11, -1.11, -1.23, -1.23, -1.08, -1.08, -1.19, -1.19, -1.73, -1.73, -1.88, -1.7, -1.7, -1.7, -2.36, -2.16, -2.32, -2.32, -2.32, -2.49, -2.77, -2.96, -2.96, -2.75, -2.92, -2.92, -2.92, -2.92, -2.92, -2.92, -2.92, -2.92, -2.92, -2.92, -2.92, -2.92, -2.92, -2.92, -2.89, -2.89, -2.89, -3.37, -3.4, -3.42, -3.45, -4.1, -4.1, -4.1, -4.12, -3.22, -3.08, -2.84, -2.18, -2.36, -2.16, -2.32, -2.32, -2.32, -2.36, -2.82, -2.82, -2.82, -2.82, -2.4, -1.73, -1.23, -0.63, -0.96, 0.0, 0.0, 0.0, -0.96, -2.8, -3.97, -4.87, -5.24, -4.5, -3.45, -3.63, -3.32, -3.36, -3.25, -3.55, -3.35, -0.0, 1.7, 1.55, 1.83, 1.8, 0.99, 1.2, -0.0, -0.0, -0.0, -0.0, -0.0, -1.27, -1.27, -1.11, -1.11, -1.11, -1.23, -1.08, -1.08, -1.19, -1.19, -1.73, -1.73, -1.73, -1.7, -1.7, -1.7, -2.36, -2.36, -2.16, -2.32, -2.32, -3.0, -2.77, -2.77, -2.96, -2.96, -3.2, -3.4, -3.4, -3.4, -3.4, -3.4, -3.4, -3.4, -3.4, -3.4, -3.4, -3.4, -3.4, -3.4, -3.4, -3.37, -3.37, -3.37, -3.4, -2.96, -3.45, -4.1, -4.1, -4.1, -4.12, -3.22, -3.08, -2.84, -2.4, -2.18, -2.36, -2.32, -2.32, -2.32, -2.82, -2.82, -2.82, -2.82, -2.82, -3.08, -2.4, -1.94, -1.08, -1.19, -0.54, 0.0, 0.0, 0.0, -0.95, -2.82, -3.55, -4.42, -4.26, -3.45, -3.63, -3.49, -3.51, -3.39, -3.45, -4.47, -0.96, -0.0, 0.81, 0.81, 0.81, 0.79, 1.13, -0.0, -0.0, -1.13, -1.13, -1.13, -1.13, -1.13, -1.27, -1.11, -1.11, -1.23, -1.23, -1.08, -1.08, -1.73, -1.73, -1.73, -1.73, -1.88, -1.7, -2.18, -2.36, -2.36, -2.16, -2.32, -2.8, -3.0, -3.0, -2.77, -2.96, -3.42, -3.42, -3.4, -3.4, -3.4, -3.4, -3.4, -3.4, -3.4, -3.4, -3.4, -3.4, -3.4, -3.4, -3.4, -3.4, -3.6, -3.37, -3.37, -3.4, -2.96, -3.45, -3.45, -4.1, -4.1, -4.12, -3.22, -3.08, -2.84, -2.4, -2.18, -2.36, -2.32, -2.32, -2.8, -2.8, -2.82, -2.82, -2.82, -2.82, -3.08, -2.84, -2.2, -1.73, -1.73, -1.16, 0.0, 0.0, 0.0, 0.0, -0.95, -2.51, -4.42, -5.24, -5.36, -4.34, -4.4, -4.25, -4.13, -4.4, -4.98, -3.22, -1.84, -0.0, -0.0, -0.0, -0.0, -0.0, -0.0, -0.0, -1.13, -1.13, -1.13, -1.13, -1.13, -1.13, -1.27, -1.11, -1.11, -1.23, -1.23, -1.08, -1.73, -1.73, -1.73, -1.73, -1.88, -2.18, -2.18, -2.36, -2.36, -2.36, -2.8, -2.8, -3.0, -3.0, -2.77, -3.42, -3.42, -3.42, -3.42, -3.64, -3.4, -3.4, -3.4, -3.4, -3.4, -3.4, -3.42, -3.42, -3.42, -3.2, -3.4, -3.4, -3.4, -3.6, -2.89, -2.92, -2.96, -3.0, -3.45, -3.85, -3.85, -3.47, -3.22, -3.08, -2.84, -2.84, -2.4, -2.18, -2.36, -2.32, -2.8, -2.8, -3.04, -2.82, -2.82, -3.49, -3.49, -3.49, -2.84, -2.2, -2.2, -1.88, -1.07, 0.0, 0.0, 0.0, -0.95, -2.51, -4.68, -5.24, -5.36, -6.04, -5.29, -4.92, -4.92, -4.4, -4.87, -5.26, -3.63, -1.99, -1.05, -0.88, -0.0, -0.81, -0.88, -0.98, -1.27, -1.27, -1.27, -1.13, -1.13, -1.13, -1.27, -1.11, -1.11, -1.23, -1.23, -1.08, -1.73, -1.73, -1.73, -1.73, -1.88, -2.18, -2.18, -2.36, -2.36, -2.36, -2.8, -2.8, -3.0, -3.0, -2.77, -3.42, -3.42, -3.42, -3.42, -3.64, -3.4, -3.4, -3.4, -3.4, -3.4, -3.4, -3.42, -3.42, -3.42, -3.2, -3.4, -3.4, -3.4, -3.6, -2.89, -2.92, -2.96, -3.0, -3.45, -3.85, -3.85, -3.47, -3.22, -3.08, -2.84, -2.84, -2.4, -2.18, -2.36, -2.32, -2.8, -2.8, -3.04, -2.82, -2.82, -3.49, -3.49, -3.49, -2.84, -2.2, -2.2, -1.88, -1.07, 0.0, 0.0, 0.0, -0.95, -3.77, -4.68, -5.24, -5.36, -6.04, -5.9, -5.76, -4.92, -4.4, -4.5, -5.37, -4.98, -3.63, -1.99, -1.99, -0.96, -0.88, -0.96, -2.0, -2.23, -2.23, -2.23]}]